GFSNE_2pvu_pres_003.txt.gz
Presure
139 154 135 140 122 207 163 213 162 228 215 200 86 240 252 264 218 276 449 444 441 438 429 421 422 428 461 474 475 460 447 366 323 282 286 287 277 265
137 150 205 175 232 163 154 219 215 218 230 248 256 225 198 461 287 431 420 438 463 467 442 404 397 397 404 434 469 447 433 435 399 366 297 286 289 273
233 183 135 213 194 201 216 220 227 239 254 267 298 468 403 427 301 450 455 442 436 431 432 444 649 393 389 395 430 445 384 418 407 380 366 306 287 338
222 214 220 194 208 214 226 233 245 252 277 474 455 427 413 412 443 446 436 424 420 409 406 423 424 556 396 381 385 431 436 394 370 394 396 370 341 273
215 144 206 215 214 231 240 248 260 483 425 439 421 404 437 428 437 419 408 393 395 423 450 480 580 447 463 384 375 409 419 424 428 400 375 375 368 308
173 201 210 221 242 241 250 304 476 390 434 408 396 424 417 431 404 382 395 402 424 434 445 480 541 573 582 415 373 376 409 406 414 414 386 367 363 359
198 191 236 246 245 263 448 474 382 430 401 389 432 425 436 398 353 393 414 435 433 431 460 498 521 551 572 429 373 369 404 397 401 401 417 387 373 363
226 238 240 250 268 464 463 371 427 395 381 446 459 439 392 370 397 428 445 532 545 456 489 498 506 541 560 458 374 370 407 395 393 400 417 417 383 364
240 243 259 430 460 379 366 427 397 370 421 426 424 407 365 401 440 449 520 527 536 531 527 541 531 537 559 567 362 368 386 396 390 384 388 406 420 396
245 291 464 460 365 361 428 400 376 419 438 436 438 368 404 384 457 511 510 501 495 497 508 488 489 487 518 362 359 366 376 387 383 388 392 394 418 416
391 468 391 357 362 429 403 378 420 420 426 443 368 399 366 478 489 400 406 487 496 475 459 469 482 488 361 360 358 342 355 366 308 378 377 385 381 403
458 374 353 410 426 400 373 417 441 477 472 355 399 352 363 354 359 353 357 364 367 364 358 355 360 364 363 361 358 357 314 311 302 382 323 362 380 396
355 352 407 419 400 370 392 423 443 432 372 456 344 347 350 346 339 340 343 340 343 347 350 351 350 352 355 356 354 351 356 357 365 334 304 295 376 391
443 433 417 399 369 366 417 462 358 480 405 339 337 339 328 328 334 335 336 339 339 340 344 350 350 351 341 335 337 344 357 335 507 335 306 295 350 387
428 416 394 368 353 414 451 388 527 335 336 329 328 320 329 330 323 340 346 347 347 349 350 350 348 357 372 486 484 455 458 386 377 318 300 293 300 328
411 385 365 355 417 452 390 401 319 330 325 321 324 335 329 332 329 334 342 345 344 338 337 341 355 378 442 468 501 388 373 367 384 318 300 294 296 308
377 368 453 423 444 408 366 320 320 311 327 331 325 322 317 327 332 328 325 328 325 327 333 340 345 349 339 332 306 356 366 368 377 398 307 294 291 294
476 495 425 442 396 348 322 357 382 399 310 310 305 303 316 315 317 319 311 307 313 314 316 324 334 347 355 349 355 358 365 361 368 376 357 290 288 292
485 419 440 397 341 325 356 370 319 303 307 316 315 317 314 309 301 309 307 296 292 296 328 339 316 330 332 338 311 363 355 360 354 369 344 334 287 337
409 433 395 334 320 355 357 312 301 296 304 311 314 313 300 294 282 293 288 289 285 291 315 292 341 324 323 318 311 330 338 345 348 364 372 316 288 275
431 390 331 316 344 343 341 307 302 306 302 299 294 291 287 285 283 282 274 280 281 273 274 286 306 310 307 317 334 345 335 308 328 334 308 310 299 277
459 327 314 341 336 329 315 312 308 302 295 295 284 288 287 284 283 287 272 271 269 270 266 267 256 292 288 280 292 291 304 317 304 306 301 286 277 271
332 315 333 305 318 311 304 298 300 300 290 287 287 288 282 272 274 275 276 273 271 269 263 270 264 263 262 260 280 277 291 292 288 278 276 285 284 277

GFSNE_2pvu_pres_006.txt.gz
Presure
235 231 217 220 139 155 234 146 249 243 228 197 141 139 204 226 235 237 230 253 256 396 458 448 442 435 432 429 429 428 431 458 520 484 456 377 362 271
214 211 221 132 234 138 212 187 95 119 138 176 150 130 230 169 227 225 373 460 62 286 178 417 436 461 461 459 457 461 469 411 427 518 484 413 363 332
218 155 209 179 228 224 223 196 214 134 229 234 236 254 234 342 429 403 450 314 421 237 429 435 436 437 436 429 428 433 441 490 407 408 514 367 377 317
214 147 224 221 215 202 208 213 178 201 237 262 287 496 405 391 443 429 412 405 458 440 420 433 424 411 411 409 410 412 416 421 492 402 399 320 313 378
225 214 176 198 203 209 221 231 242 251 309 489 402 381 390 427 413 447 454 460 434 447 421 385 388 410 413 412 410 413 421 407 424 467 395 470 481 419
133 177 196 207 221 228 238 255 271 479 418 380 378 440 413 397 431 459 462 438 403 373 390 427 452 458 461 457 454 450 460 584 454 472 400 397 471 467
206 214 216 228 233 249 265 463 384 390 379 444 437 406 390 434 449 457 494 381 388 433 471 519 532 540 513 488 490 498 535 564 557 473 401 381 448 464
209 218 228 240 257 369 483 474 465 453 443 423 398 433 457 480 473 381 389 457 510 493 512 529 521 533 537 498 503 521 547 557 564 479 398 379 443 451
219 234 246 232 473 478 471 458 449 431 408 385 435 444 452 374 395 510 368 518 386 400 498 516 511 517 498 494 496 524 557 557 567 474 380 374 437 432
236 268 477 482 472 455 451 446 436 398 371 428 441 455 383 501 353 374 361 361 365 371 374 489 481 471 467 467 475 499 529 564 598 396 368 394 423 422
322 479 470 461 451 444 439 430 399 367 429 440 388 491 374 363 355 351 345 344 349 349 357 361 414 443 434 442 469 500 519 558 373 367 376 404 399 395
470 469 453 445 436 427 412 391 372 445 449 480 528 334 351 344 335 334 339 336 338 339 347 354 347 359 358 363 369 363 361 363 366 370 407 408 405 408
470 458 444 430 416 392 374 417 450 460 416 414 325 339 329 320 331 334 331 328 332 335 339 345 351 355 350 348 353 356 354 354 346 358 367 377 390 406
451 437 418 397 378 477 515 442 462 414 363 323 327 319 323 332 331 340 342 342 339 341 341 333 339 343 345 350 350 351 343 328 308 301 297 375 376 382
422 399 462 532 518 494 427 466 424 340 322 317 312 331 327 328 332 342 345 346 348 346 342 351 361 347 352 338 334 341 339 342 350 354 360 373 339 371
540 518 509 500 463 427 419 377 327 321 334 341 318 315 316 330 322 318 323 324 326 330 335 341 367 433 434 474 462 393 366 453 302 347 397 367 304 295
504 499 485 425 429 388 354 324 351 405 319 303 307 303 325 325 326 311 312 313 312 321 326 343 343 338 403 446 442 384 394 381 375 379 391 320 300 289
485 459 411 436 464 342 332 377 321 307 305 317 315 316 312 303 312 301 301 298 296 334 324 332 334 352 359 367 305 302 369 382 389 405 406 300 291 284
409 432 409 350 330 326 367 331 305 293 312 307 318 308 297 291 293 295 298 295 300 294 335 316 328 328 330 358 357 363 361 387 372 374 320 293 286 280
454 392 344 325 321 355 349 302 296 299 302 311 306 296 287 291 288 287 287 287 286 285 285 328 337 327 321 320 359 359 355 376 358 351 347 292 280 281
487 351 319 325 338 335 311 308 315 307 299 299 290 295 294 287 287 272 285 277 274 281 279 282 297 308 332 335 314 347 344 362 347 342 341 290 281 286
337 309 327 333 323 320 318 313 304 305 298 300 299 293 293 292 292 282 274 274 275 261 273 271 274 297 283 318 329 299 337 341 360 305 330 327 288 293
309 326 329 318 318 307 306 308 306 303 299 292 291 289 292 286 281 283 282 276 270 273 268 275 269 273 273 269 259 315 324 344 340 346 304 291 282 280

GFSNE_2pvu_pres_009.txt.gz
Presure
200 213 198 163 243 213 231 240 237 257 273 248 69 189 116 212 200 225 210 232 237 236 240 256 276 266 227 416 420 453 474 471 473 468 468 508 507 482
145 253 249 228 230 239 256 265 251 213 198 161 132 210 218 215 229 74 169 267 336 410 243 403 399 423 448 449 443 439 438 433 430 437 437 439 459 493
254 222 232 247 169 215 227 222 150 153 216 220 225 205 232 247 428 436 486 482 452 437 445 436 446 441 471 461 458 461 455 448 458 462 467 423 424 435
240 243 242 201 206 224 121 190 214 220 229 234 239 348 509 496 488 478 468 447 433 421 437 435 433 459 451 452 454 450 441 435 440 443 453 458 468 419
172 180 199 219 135 192 207 213 223 237 237 405 502 494 485 476 472 461 428 408 421 464 487 478 452 473 451 440 426 398 384 380 382 402 415 438 445 460
219 216 221 115 161 208 216 226 239 420 495 486 476 471 468 455 438 410 423 459 477 479 484 474 476 434 407 427 448 507 516 506 460 434 405 393 412 434
214 214 131 205 213 223 235 341 497 483 473 466 461 454 436 412 389 458 501 417 375 460 500 490 404 502 516 520 536 554 558 558 537 473 458 434 406 416
207 200 206 216 227 255 382 484 475 463 453 445 434 417 398 397 462 379 553 543 355 380 485 367 377 380 485 522 518 512 515 531 557 507 505 457 445 421
201 210 220 247 293 428 481 466 456 437 419 406 388 383 460 475 547 497 347 370 360 356 350 354 369 367 502 484 472 460 469 492 503 513 557 550 500 467
219 230 259 350 429 467 457 444 412 393 380 378 403 468 516 492 340 352 341 336 342 350 347 347 358 359 361 460 457 467 465 488 495 498 530 569 597 575
240 338 361 439 464 443 483 562 579 561 533 478 448 487 384 335 343 324 331 338 339 340 343 342 349 358 355 371 446 446 460 481 475 518 542 569 593 598
339 423 468 450 500 528 530 528 525 500 450 499 413 344 338 326 330 338 334 338 347 354 348 341 343 348 355 356 359 357 366 472 496 506 567 541 552 512
418 463 451 512 512 507 503 498 456 444 423 415 332 332 322 334 333 337 349 356 356 343 342 355 343 341 351 352 358 356 351 353 368 420 468 474 451 393
454 477 498 495 497 492 462 429 484 407 361 329 345 325 327 326 343 340 336 333 334 337 345 345 359 348 343 346 358 354 353 351 362 366 366 366 363 364
489 481 464 481 470 421 455 395 378 338 403 417 320 314 313 330 316 317 317 315 321 327 339 347 357 358 359 351 340 349 354 355 359 358 365 380 420 414
484 447 452 425 436 432 376 352 385 420 321 311 307 310 325 334 319 312 308 314 336 330 336 348 346 367 374 468 419 333 332 343 348 357 362 364 366 371
571 569 437 447 381 364 337 384 322 315 304 319 316 315 312 314 307 304 300 317 348 328 334 336 355 362 412 456 433 423 398 342 341 323 289 333 373 370
540 467 446 368 352 323 383 366 313 303 293 311 311 301 292 295 298 300 298 296 304 329 324 329 338 354 364 320 363 361 380 375 316 312 384 344 331 357
433 379 346 332 316 364 353 326 301 292 314 313 307 295 290 297 288 291 293 301 293 292 342 328 316 347 356 358 358 368 375 371 367 373 347 314 294 288
494 348 323 326 340 340 334 327 310 316 300 306 296 291 281 287 289 282 287 287 286 284 284 325 342 330 338 358 353 383 373 386 395 391 321 308 292 287
350 315 331 337 327 326 322 317 313 306 300 295 296 290 290 288 285 278 277 276 285 285 285 282 282 341 327 343 373 364 360 365 380 359 301 290 287 285
311 333 328 318 311 304 300 302 301 305 305 302 299 293 300 297 288 286 282 277 276 267 276 283 276 287 327 337 339 360 340 354 359 333 294 288 286 285
336 324 303 299 288 287 288 288 284 279 274 274 276 278 276 279 295 278 282 279 276 279 272 272 272 275 283 315 339 348 336 337 346 351 284 279 278 279

GFSNE_2pvu_pres_012.txt.gz
Presure
206 246 235 227 221 246 211 238 266 279 226 199 218 202 231 234 135 147 208 103 224 227 125 234 241 244 246 251 253 258 262 264 77 210 261 257 258 253
242 236 189 188 140 230 261 254 241 176 202 205 142 123 143 213 219 224 228 231 235 248 178 364 264 494 493 488 480 236 495 495 496 478 415 414 415 426
220 226 256 241 254 244 234 201 223 223 232 226 126 131 132 220 137 65 248 419 488 479 388 465 467 467 456 453 473 465 459 454 464 462 511 496 459 438
251 253 250 250 225 157 217 222 225 216 137 139 218 222 216 496 507 496 482 473 469 456 446 442 435 429 421 426 476 500 516 505 480 454 472 476 478 431
231 263 175 151 219 217 172 184 197 218 226 231 332 506 500 492 481 468 456 443 422 410 407 406 449 524 516 474 402 407 405 428 474 478 465 457 458 463
221 151 200 216 206 171 216 222 230 240 383 496 484 470 461 453 429 423 404 384 399 445 545 540 537 533 478 463 387 384 394 527 491 440 412 418 434 455
220 212 205 206 212 215 229 251 342 475 478 459 497 513 508 492 475 427 407 479 534 494 493 406 368 384 390 380 373 378 386 389 520 560 568 566 548 428
209 197 207 213 224 239 322 356 478 458 504 506 520 579 578 562 553 507 532 457 426 372 354 360 360 353 357 358 365 369 371 498 490 493 508 528 578 567
204 218 219 232 309 339 452 466 503 516 508 509 523 522 523 498 459 436 403 349 342 353 331 331 359 351 353 354 359 363 397 474 477 484 489 487 499 528
217 228 279 308 362 483 477 504 496 505 499 493 483 467 448 438 405 342 331 334 330 342 342 342 352 347 346 351 353 359 364 450 446 453 487 477 502 509
251 302 306 360 475 502 501 483 513 475 449 440 430 443 369 339 326 325 324 339 345 360 353 346 351 356 347 346 353 351 352 370 445 452 487 493 494 514
297 317 371 471 497 490 468 489 435 437 408 407 361 337 331 325 330 339 350 344 340 345 348 355 351 355 356 340 353 351 352 354 367 503 520 528 552 548
318 400 454 486 501 584 458 433 458 393 376 341 359 332 324 324 337 329 324 323 326 333 334 341 346 356 360 346 351 344 347 357 355 395 446 474 543 574
475 445 466 575 577 501 450 401 369 347 364 397 322 313 311 321 320 318 318 317 325 333 330 344 343 355 351 347 340 349 344 349 354 356 395 441 472 561
444 449 536 505 466 464 384 354 336 406 331 315 305 309 320 328 316 307 303 322 333 324 335 353 349 356 347 433 328 343 347 346 345 360 357 373 422 448
453 494 447 450 389 360 359 381 393 321 305 313 311 314 313 316 320 307 308 327 314 324 327 362 360 357 478 469 328 328 341 346 345 350 372 393 362 379
489 443 420 366 341 327 371 372 319 305 301 300 310 305 299 298 297 299 300 305 298 342 328 329 353 362 371 468 468 328 325 337 340 346 353 370 406 391
444 422 359 342 329 360 353 341 307 299 294 310 305 301 296 289 289 295 292 283 298 302 344 335 360 359 365 361 363 399 339 321 332 336 351 355 369 394
509 373 350 351 342 340 333 338 331 318 317 306 306 298 288 283 293 284 284 283 288 295 300 341 341 357 360 299 372 349 364 329 346 386 290 353 358 368
372 348 340 340 327 316 310 306 308 311 307 303 300 297 287 280 285 281 284 284 287 286 288 299 344 354 358 373 371 381 361 360 353 353 329 329 348 356
345 343 340 320 302 296 293 291 290 289 286 286 300 300 296 297 289 286 282 280 285 290 286 293 306 342 366 354 361 367 381 339 351 319 303 300 298 297
339 317 304 298 289 292 290 296 300 291 290 272 282 279 278 279 290 294 286 282 279 276 286 278 294 315 358 342 350 354 375 360 352 303 291 286 287 292
310 300 297 288 292 291 294 283 274 266 328 284 266 269 271 278 271 273 282 278 281 278 276 264 283 300 318 354 343 350 367 314 299 294 289 285 283 346

GFSNE_2pvu_pres_015.txt.gz
Presure
202 211 290 273 259 244 144 266 265 259 268 254 228 220 227 226 225 221 230 228 227 180 226 224 224 219 238 237 233 235 247 250 253 252 251 228 241 239
214 281 259 244 233 262 253 242 231 255 193 204 70 219 220 218 58 224 216 194 242 245 251 252 257 259 263 357 188 451 495 495 500 498 496 372 434 365
175 250 224 151 244 242 281 223 221 191 223 213 215 157 182 161 241 250 437 512 500 491 482 470 466 464 467 466 69 459 455 453 454 454 455 458 467 474
246 227 257 231 281 258 219 154 166 214 222 166 237 244 249 356 510 536 528 523 517 512 497 470 447 435 432 418 76 412 489 498 511 504 493 477 472 471
239 254 242 272 212 178 179 197 207 213 234 245 334 347 515 525 529 548 547 546 592 575 560 542 538 447 415 456 543 535 537 543 543 475 452 431 420 493
241 278 208 219 201 207 216 172 186 242 314 340 536 528 506 531 529 533 551 543 544 530 518 494 495 503 495 458 404 373 370 382 389 394 390 393 464 505
275 218 210 193 214 226 234 241 309 326 433 485 510 512 528 507 481 473 476 466 456 453 475 459 423 371 363 365 361 353 353 354 359 363 369 382 390 402
212 181 174 224 136 238 291 311 325 477 475 509 507 481 459 451 440 430 432 438 394 450 359 342 350 348 342 340 347 348 350 354 356 364 372 375 386 496
193 218 224 228 260 310 314 333 460 501 542 483 461 441 438 421 413 369 354 345 340 336 329 338 357 351 358 363 363 358 352 351 357 363 370 459 452 470
198 227 232 302 306 319 343 476 601 601 463 457 429 423 432 343 331 325 321 333 354 356 348 345 352 354 360 356 353 362 349 350 354 366 362 443 464 466
225 258 301 303 321 367 478 529 600 453 454 404 384 347 333 332 320 330 338 333 335 335 331 340 341 339 355 349 358 349 344 350 358 352 356 499 502 523
295 290 300 317 362 526 477 472 462 414 372 402 353 365 330 317 327 324 316 319 320 324 336 335 336 353 355 374 358 337 347 349 349 361 366 436 461 479
292 297 315 430 525 476 461 424 382 358 384 354 350 323 315 325 328 317 308 304 309 325 323 336 348 368 355 357 343 335 347 350 351 367 360 419 451 465
304 312 369 515 481 462 386 358 339 381 407 333 307 321 316 323 318 308 310 308 319 306 334 331 362 366 415 362 433 332 345 353 354 365 364 376 443 459
312 450 510 478 548 379 360 378 387 380 322 310 318 307 317 305 297 298 301 303 297 293 344 333 363 363 468 461 416 326 344 355 356 362 391 365 438 466
466 457 470 515 389 359 339 368 362 334 311 304 298 313 302 299 291 288 294 300 290 285 342 339 364 365 383 447 397 325 331 348 355 357 385 362 407 473
471 466 490 391 368 360 351 346 329 334 327 311 313 308 300 293 289 290 287 289 277 279 318 341 361 360 364 371 405 327 327 336 335 357 374 398 368 445
467 477 394 371 332 346 333 322 313 310 314 311 311 301 302 296 290 289 287 286 280 283 294 325 354 367 385 356 385 348 326 327 342 358 362 387 370 375
478 394 369 350 343 320 305 295 299 295 296 291 294 311 301 300 294 286 289 282 277 292 298 311 329 377 364 361 349 362 328 348 342 354 357 375 384 365
395 354 344 322 310 296 285 293 289 294 301 295 284 279 277 297 298 296 289 288 283 275 270 292 311 364 363 376 352 341 351 350 338 345 359 356 385 380
348 326 313 304 296 290 304 297 299 308 287 279 276 274 262 271 275 281 297 288 285 277 276 262 305 327 349 361 373 347 352 332 313 318 346 349 362 381
320 310 302 295 303 309 344 338 380 433 379 389 395 397 364 268 267 267 272 291 284 283 277 276 292 312 345 354 373 368 346 338 300 291 294 345 348 378
306 297 295 314 303 280 405 403 400 405 411 415 379 367 381 378 368 279 275 270 281 280 279 280 286 299 329 335 366 353 363 347 285 284 284 288 346 375

GFSNE_2pvu_pres_018.txt.gz
Presure
183 189 187 197 196 213 229 271 233 276 257 236 279 245 224 213 222 222 214 212 177 214 184 217 226 234 239 242 233 228 226 229 234 234 230 233 226 227
187 186 201 192 211 230 252 237 264 259 281 216 220 220 208 206 230 240 248 256 302 255 537 532 532 541 553 545 535 523 498 489 493 497 505 356 305 253
194 196 194 213 166 231 257 256 273 244 226 206 211 228 237 205 264 341 352 466 497 556 553 546 546 552 563 590 541 529 522 510 481 470 470 466 470 471
192 193 213 253 217 271 259 249 222 216 205 222 92 244 313 321 331 492 514 534 503 479 499 511 522 537 554 573 595 591 537 524 505 456 434 339 407 415
204 213 256 229 272 257 203 211 180 202 236 230 292 319 321 499 558 545 486 468 467 468 476 469 471 485 493 497 508 514 518 522 507 512 510 528 537 541
220 208 251 274 242 210 189 204 227 240 261 320 319 350 636 634 493 464 452 457 457 452 367 367 380 384 394 404 409 410 406 406 402 400 383 383 386 393
229 264 271 223 208 193 186 234 241 270 318 350 499 629 522 460 441 439 451 397 348 339 341 341 346 345 353 352 352 350 351 351 351 353 355 359 363 368
276 251 203 170 187 224 236 251 312 335 352 510 512 472 426 424 438 398 338 345 328 353 354 356 357 356 359 364 365 368 366 362 361 364 362 355 360 364
224 176 201 205 207 236 255 312 324 355 495 503 434 409 428 379 380 338 336 329 339 346 327 339 339 351 360 352 351 355 368 366 365 371 364 356 355 363
174 189 208 212 236 260 312 318 444 489 472 413 393 392 396 372 338 319 310 332 339 332 319 328 333 330 348 349 359 359 362 366 388 362 353 361 355 362
195 214 221 236 295 310 318 498 492 449 394 384 348 345 370 331 311 329 327 316 316 323 344 337 333 334 361 365 362 361 371 380 350 350 357 359 358 362
212 219 238 291 318 322 525 499 435 388 383 415 411 366 323 313 323 325 313 305 305 303 339 301 356 341 366 369 350 353 357 349 342 351 349 348 355 370
222 248 292 314 330 494 486 438 389 380 389 382 351 333 314 305 317 298 302 289 296 304 303 289 347 375 376 476 456 449 353 332 347 346 347 359 393 365
263 295 312 398 498 483 471 389 372 375 376 354 330 316 310 306 308 300 291 286 300 292 292 293 354 370 376 453 447 405 329 332 343 354 353 391 366 416
294 310 463 465 479 479 396 365 362 351 350 342 328 316 314 309 306 301 284 289 287 288 297 293 341 372 382 413 411 337 326 334 342 351 363 402 395 432
316 478 449 481 470 397 364 354 344 334 329 323 326 323 316 308 306 302 292 289 288 292 290 298 331 373 390 366 401 332 323 333 348 349 394 363 433 441
482 444 463 449 393 364 357 352 332 303 290 294 290 294 302 314 305 304 293 286 285 285 288 289 319 370 390 363 385 324 328 349 347 349 398 376 435 421
450 478 434 389 355 342 327 313 300 288 294 292 286 290 287 288 282 305 300 289 290 284 284 287 291 351 386 310 360 353 372 345 344 356 389 377 399 395
488 424 381 347 331 317 303 298 300 313 321 328 339 308 292 299 299 281 277 301 294 289 281 285 285 335 365 376 343 338 325 339 345 359 387 364 378 381
426 370 342 323 310 302 311 338 392 411 311 443 454 391 343 278 274 264 273 277 299 293 281 281 278 327 355 385 344 337 283 332 337 361 387 361 387 386
364 337 318 305 308 350 381 424 434 428 400 404 418 419 372 388 370 341 270 272 276 296 286 283 273 320 346 378 342 338 292 302 335 358 386 380 362 430
333 315 305 307 365 360 359 366 387 397 408 398 391 395 397 369 379 382 357 280 274 279 291 283 280 314 341 378 358 337 290 290 307 349 383 392 360 367
313 304 305 314 372 364 305 348 337 336 349 363 383 389 384 383 383 374 359 378 281 274 294 280 282 310 338 372 358 349 289 286 284 348 383 399 392 357

GFSNE_2pvu_pres_024.txt.gz
Presure
209 207 208 208 198 187 188 180 181 180 182 187 198 195 205 212 251 274 243 249 184 213 207 219 230 240 291 356 662 638 619 601 586 394 368 365 360 360
208 207 192 191 198 184 185 178 187 192 188 195 198 212 247 258 261 257 204 216 215 223 230 249 350 536 505 498 495 493 488 491 499 506 510 514 518 523
205 205 206 190 184 173 180 193 188 198 194 204 232 261 253 253 231 219 219 232 234 250 340 507 476 486 470 447 435 425 422 421 423 427 428 453 463 515
209 191 188 183 131 193 187 196 199 207 223 287 259 142 226 211 225 228 237 253 322 505 460 444 453 267 393 387 372 358 359 359 361 355 355 357 358 368
188 188 185 194 192 191 199 204 216 268 244 150 227 209 208 223 234 240 298 509 469 438 421 448 363 374 358 343 338 339 344 345 353 354 363 374 382 382
184 192 193 187 194 201 214 235 299 260 144 217 202 216 227 235 251 334 481 436 419 420 430 362 360 351 338 344 331 329 347 341 336 343 355 359 364 370
194 193 189 193 207 232 252 259 172 217 214 215 221 233 237 295 342 447 425 425 425 419 370 339 339 344 337 325 326 327 324 322 370 381 339 349 360 354
184 197 205 217 236 292 253 198 219 212 215 225 237 253 329 522 437 406 426 410 377 372 344 326 339 322 314 318 311 316 318 408 408 398 373 383 375 374
190 178 231 252 271 236 211 211 206 218 230 239 285 334 521 436 415 390 392 374 356 348 326 315 320 313 316 307 308 318 311 477 472 424 382 372 364 364
221 198 278 251 190 194 210 213 218 230 242 330 437 497 447 404 386 384 364 339 332 327 327 309 315 310 308 300 304 316 410 448 446 450 399 353 354 360
270 272 197 209 206 208 213 222 229 244 330 481 472 436 399 373 368 367 347 334 323 313 323 310 313 305 306 299 301 335 405 404 398 387 385 363 345 339
245 225 209 208 205 218 222 233 261 335 466 445 414 393 372 364 363 349 342 341 327 312 319 307 312 300 300 301 299 337 386 416 403 336 332 323 331 344
211 205 210 217 215 225 234 318 398 460 424 399 373 350 345 332 341 307 306 294 294 313 320 308 306 305 295 287 310 338 382 373 363 331 330 326 332 339
205 212 209 216 228 237 324 475 440 408 381 345 332 324 315 313 309 308 305 300 302 288 279 319 306 300 297 290 309 331 367 362 351 327 325 330 345 385
216 210 215 228 240 320 466 421 392 359 331 321 318 384 446 440 428 406 323 315 315 302 292 280 313 305 293 285 308 367 354 340 359 319 308 368 386 367
205 211 228 300 320 451 410 377 339 323 323 348 372 370 397 422 418 432 466 412 393 330 301 281 302 309 292 288 316 378 359 342 327 345 367 375 368 380
211 228 315 324 438 398 365 335 322 378 396 378 374 258 340 405 413 428 427 412 382 394 313 293 294 312 292 299 322 381 352 326 339 358 373 393 366 375
295 319 375 430 390 354 330 323 362 354 358 355 278 350 369 358 391 403 397 390 378 404 284 267 300 297 289 308 324 369 340 302 345 370 365 412 373 374
337 350 423 386 348 324 322 338 327 359 312 251 356 358 352 357 362 389 391 373 390 404 278 265 310 297 295 318 378 361 294 337 359 374 411 392 367 378
504 419 384 349 323 316 321 321 329 330 264 359 371 367 364 367 353 382 388 379 397 381 289 267 299 296 306 330 360 298 304 350 387 382 399 371 370 366
416 368 350 322 310 321 314 315 290 295 311 351 372 374 367 364 364 364 394 361 390 385 300 275 298 293 314 363 332 288 338 395 388 396 401 389 412 385
372 356 324 308 318 313 313 318 292 312 305 331 404 386 375 372 373 358 382 398 365 328 278 279 292 304 360 356 286 284 392 404 384 396 408 414 413 386
357 326 307 309 311 308 319 241 313 304 295 292 382 380 371 376 390 405 380 396 370 299 276 293 295 319 354 299 278 374 396 369 395 401 341 318 320 324

GFSNE_2pvu_pres_030.txt.gz
Presure
234 228 225 220 214 210 199 203 201 190 184 190 192 180 191 188 198 192 197 195 195 183 212 220 254 272 292 206 220 202 224 232 235 238 248 254 262 267
236 237 229 223 219 211 195 203 207 201 198 189 182 188 184 185 192 198 186 137 206 219 248 249 304 216 208 210 197 228 236 245 259 274 469 466 466 479
222 226 231 229 222 217 207 202 207 205 194 193 188 184 186 194 195 197 173 214 240 262 304 244 225 153 197 231 242 251 266 408 443 432 444 445 436 425
216 219 230 231 228 222 215 210 212 204 189 189 191 189 194 198 145 209 227 247 265 289 232 220 234 232 248 256 351 457 464 451 435 420 412 401 384 365
224 215 217 240 233 228 222 214 212 191 189 192 193 197 190 162 216 235 251 280 218 227 227 237 248 256 449 435 437 428 413 396 387 382 363 355 349 344
236 217 214 237 235 229 222 220 191 187 193 190 133 148 213 220 244 259 224 227 223 236 246 252 367 439 420 412 407 386 369 361 356 345 334 331 335 328
238 215 221 242 234 226 221 187 188 189 193 134 206 215 226 243 261 232 225 225 238 251 265 442 417 402 395 389 388 366 350 345 335 326 324 318 313 310
217 213 241 233 229 190 187 196 186 174 177 209 216 228 248 292 225 224 234 242 248 338 389 364 364 374 374 372 370 360 341 335 324 321 319 311 308 315
212 223 230 219 188 191 184 193 201 206 217 224 243 269 285 227 223 236 250 258 380 366 364 343 328 328 325 367 369 356 340 329 333 325 319 317 315 312
230 211 189 190 189 184 186 204 211 216 229 207 238 247 228 231 244 254 315 373 356 385 392 416 396 344 331 321 351 309 318 334 333 323 316 314 311 304
190 191 190 192 136 207 208 213 232 240 278 272 226 236 236 252 258 372 368 389 371 386 398 393 402 394 402 277 317 316 300 321 331 322 317 308 305 295
187 194 198 206 207 217 231 239 273 263 223 229 235 247 255 276 372 376 370 364 361 389 393 391 386 455 475 437 333 319 302 306 294 318 316 307 293 320
197 204 209 219 235 251 271 264 260 243 235 246 252 255 380 362 363 355 364 353 345 390 398 392 397 434 478 448 370 330 311 303 291 307 311 291 302 336
212 225 247 267 271 262 257 253 240 255 248 252 342 370 358 355 352 354 347 335 355 304 394 384 416 417 425 427 408 334 316 308 289 307 299 297 330 366
276 274 261 256 258 253 245 248 243 250 339 384 361 352 348 343 351 345 330 264 401 396 395 382 404 401 400 397 401 387 323 306 303 313 302 324 346 359
224 233 252 246 241 239 241 252 431 400 375 358 348 343 338 336 335 346 346 420 403 380 384 404 392 388 376 401 393 374 310 309 311 312 324 357 305 350
189 234 234 235 243 254 480 416 389 371 351 344 335 329 330 332 302 337 408 408 396 386 373 399 398 412 386 366 315 293 314 303 311 324 337 317 395 420
224 229 253 424 545 428 394 382 365 345 337 332 324 325 328 305 391 435 429 401 389 379 399 381 402 364 302 289 288 310 313 326 369 292 389 419 402 374
316 343 541 549 403 388 385 358 336 332 326 319 322 321 335 408 458 455 435 404 393 387 399 389 317 297 282 306 303 321 364 289 394 421 415 360 353 343
512 507 397 448 407 376 351 332 330 321 317 318 317 341 453 430 450 437 451 415 388 401 362 315 300 287 305 332 374 288 405 424 402 369 368 365 357 330
535 457 454 402 369 346 328 324 320 313 301 312 338 457 432 447 450 452 465 412 397 357 313 299 293 316 365 304 306 401 394 371 362 347 333 330 328 335
520 434 390 361 338 324 321 316 307 266 312 321 416 424 444 456 483 494 470 387 325 306 291 305 339 365 290 367 373 349 338 319 308 308 312 315 315 317
408 373 351 328 322 321 313 262 316 310 308 371 436 406 437 452 453 394 338 307 297 290 312 357 361 284 389 364 329 314 304 297 298 306 303 307 308 306

GFSNE_2pvu_pres_033.txt.gz
Presure
260 258 262 263 240 243 243 238 239 248 236 224 224 224 220 217 206 204 208 206 202 199 191 195 193 196 200 143 144 196 233 302 302 240 224 208 219 227
249 247 251 256 257 260 249 209 236 222 227 230 231 229 225 224 220 216 215 216 206 192 199 193 200 178 145 172 226 251 307 233 206 223 235 233 232 245
255 243 246 248 251 253 257 260 245 233 227 227 234 233 234 235 229 222 220 217 195 198 193 201 145 193 219 229 293 243 209 227 229 248 265 288 435 464
239 238 244 245 249 253 255 260 265 258 226 222 221 244 249 244 239 236 228 190 191 172 143 207 213 227 255 307 216 228 226 261 283 441 444 448 454 451
237 234 241 242 242 251 259 263 260 262 247 227 222 238 249 245 237 192 193 198 186 208 215 225 235 294 226 223 234 267 305 441 426 419 410 407 413 405
229 232 241 244 256 262 258 252 251 248 230 223 249 249 243 202 195 166 198 206 212 225 233 282 268 219 238 268 306 390 379 366 354 396 385 381 371 370
231 241 257 258 259 247 241 237 228 223 231 244 242 206 168 185 203 210 217 221 225 269 263 215 238 263 281 386 379 373 366 349 336 384 369 360 351 341
251 266 250 238 233 230 224 217 238 241 231 194 198 200 204 212 218 222 233 298 267 218 261 257 279 377 386 392 387 414 421 392 346 323 361 352 340 334
247 228 226 222 213 236 235 225 197 197 205 203 209 215 218 228 264 291 263 231 243 260 278 383 378 366 362 362 399 410 403 419 352 328 357 347 336 326
216 222 231 231 220 197 198 203 200 205 214 216 227 283 293 287 243 269 249 264 266 358 375 376 359 359 352 362 410 405 408 412 404 331 324 311 326 332
223 220 204 193 199 201 203 210 215 219 250 285 280 272 268 252 251 263 264 374 372 367 362 366 358 350 343 393 400 411 286 494 415 332 311 308 322 341
195 196 199 204 211 216 224 284 277 272 259 210 256 239 255 263 269 342 387 369 367 356 359 355 348 406 332 382 388 404 447 485 488 332 311 306 310 303
153 206 213 236 273 273 270 264 207 209 231 242 250 261 303 400 386 373 362 364 354 348 351 355 356 423 401 390 393 406 427 457 462 331 313 307 309 301
241 269 265 261 253 237 235 230 233 241 251 263 385 416 390 369 355 353 352 342 346 347 347 413 429 404 389 401 401 401 419 432 434 330 313 305 310 307
258 255 228 239 235 221 234 239 256 392 466 429 398 376 358 351 347 342 339 340 336 394 445 437 411 389 403 394 387 395 398 414 411 298 309 304 303 314
237 231 228 230 172 240 260 354 514 447 413 389 370 351 342 337 334 338 333 376 468 457 438 416 392 402 398 393 402 405 383 376 369 318 309 314 309 318
226 231 225 238 287 352 553 428 383 413 384 364 346 337 328 333 333 354 452 446 461 465 409 391 401 409 378 372 313 311 286 313 317 315 317 327 355 289
171 257 329 345 543 541 476 379 405 376 353 339 329 330 331 329 439 441 461 463 466 434 390 393 394 363 308 301 284 311 314 322 362 333 294 403 424 382
328 349 566 546 527 455 419 388 363 344 330 328 330 323 373 434 468 472 488 465 455 410 390 358 311 300 291 309 321 359 293 308 427 416 383 363 356 359
450 597 539 488 431 395 369 347 331 329 301 311 316 449 386 459 473 494 498 459 399 353 312 304 300 305 328 371 367 307 402 373 341 315 310 304 305 311
611 532 441 402 371 347 331 330 305 317 320 310 437 392 397 405 401 396 360 324 306 303 298 304 349 367 288 339 359 315 303 300 300 301 304 306 313 309
446 410 377 349 333 327 302 318 299 315 205 374 416 370 372 333 320 311 303 297 291 306 348 364 326 328 358 312 300 283 283 270 284 286 291 301 302 306
385 351 330 311 330 322 318 296 309 209 310 397 365 344 313 305 300 293 293 351 354 360 290 275 383 340 295 276 281 261 270 282 277 288 300 307 311 318

GFSNE_2pvu_pres_036.txt.gz
Presure
233 234 233 235 249 237 237 235 259 248 245 244 249 253 256 262 263 251 240 231 234 238 239 243 243 240 239 235 230 221 221 222 197 188 194 198 202 199
230 229 229 234 240 239 242 251 242 242 245 245 248 249 250 252 255 260 262 256 233 236 235 236 237 255 261 259 255 247 219 191 194 197 201 208 186 217
226 225 234 240 239 235 247 237 238 237 238 243 246 244 251 254 256 261 264 264 262 229 231 230 234 256 261 258 238 192 194 202 205 212 215 179 232 248
221 237 237 229 234 247 231 233 241 243 246 254 278 271 264 261 264 261 254 254 253 241 228 231 252 248 199 196 196 206 215 216 224 228 238 254 280 269
234 236 231 235 227 229 230 241 247 273 277 265 259 249 240 238 237 238 237 233 228 233 248 244 200 199 204 210 215 222 229 250 287 271 265 257 235 273
234 245 239 228 228 231 249 270 257 253 238 236 232 230 229 229 236 234 241 238 214 200 202 200 206 213 224 236 278 281 273 265 264 228 313 397 403 386
236 214 214 235 246 253 251 229 223 225 232 234 234 232 229 226 207 196 200 201 202 212 218 273 288 277 264 257 256 270 293 359 398 390 375 377 394 394
205 205 240 244 249 231 221 207 214 221 226 230 202 194 197 203 203 209 214 216 279 268 263 246 247 223 273 301 391 382 381 384 382 372 362 360 415 386
240 237 238 227 239 233 227 220 209 193 197 204 210 227 277 280 279 264 254 246 241 235 248 270 321 407 391 375 368 365 368 372 369 365 345 375 399 394
232 234 249 221 215 202 194 195 202 210 236 272 259 267 258 248 248 242 232 254 266 370 429 412 391 372 364 352 348 354 364 371 451 438 423 352 408 402
221 212 203 194 200 214 209 210 247 256 264 254 245 195 240 229 244 260 268 439 431 404 382 382 364 353 351 335 336 356 372 442 436 422 409 434 473 394
193 188 204 205 212 243 247 261 265 239 236 238 237 222 243 266 279 460 437 403 386 374 358 355 345 346 336 333 351 426 426 422 418 422 426 443 480 408
204 212 237 242 245 263 248 235 234 235 234 236 246 271 362 428 422 401 392 381 363 352 351 344 344 344 408 480 430 406 404 401 422 422 420 432 450 455
236 240 248 264 190 229 227 234 230 238 251 313 370 478 404 394 390 380 365 355 347 353 352 372 475 482 466 423 405 389 409 416 394 395 411 421 424 408
262 224 150 223 227 228 234 245 268 335 358 506 439 414 380 379 366 354 347 346 350 454 462 473 492 449 410 396 400 392 408 391 387 387 397 397 403 333
166 225 225 224 233 250 323 346 384 527 481 432 387 371 359 351 345 345 351 462 464 473 471 484 430 401 401 398 369 365 343 337 355 365 366 369 322 316
217 219 229 251 349 354 449 543 491 444 399 374 356 347 339 330 342 440 445 505 517 497 466 413 400 378 362 331 309 293 287 296 317 314 320 323 318 314
225 316 351 388 598 548 498 446 397 372 354 345 336 335 333 418 401 427 479 488 431 403 381 356 334 314 299 286 313 362 387 370 318 321 432 422 430 406
350 402 631 560 497 435 391 368 351 338 329 312 332 329 217 407 373 348 335 330 328 323 311 305 302 314 329 376 293 389 329 325 320 319 316 317 315 318
690 529 480 419 387 366 350 333 316 307 326 326 320 367 374 323 317 314 310 304 297 297 301 329 370 365 373 368 314 307 308 305 301 301 298 301 305 309
354 336 344 348 328 319 328 333 330 323 282 316 413 364 318 310 304 298 292 298 338 362 368 363 373 354 303 300 298 287 285 282 276 278 287 290 298 302
325 348 339 308 292 290 330 329 272 317 220 215 393 320 307 301 291 296 342 341 351 337 389 387 304 300 292 285 277 274 273 293 318 321 324 352 352 320
340 322 318 320 336 334 328 254 316 225 224 332 402 313 301 293 280 342 335 293 356 335 311 299 289 278 276 262 284 273 300 304 299 313 316 350 374 371

GFSNE_2pvu_pres_039.txt.gz
Presure
222 215 209 206 215 221 254 219 238 230 236 237 227 241 240 233 235 243 252 252 252 257 258 256 257 257 263 267 269 262 241 240 246 249 250 250 254 252
219 218 207 216 214 243 220 242 228 230 232 225 234 230 226 227 236 242 262 250 255 273 265 266 268 269 272 272 275 277 271 260 238 235 232 230 233 249
225 217 191 214 230 222 239 237 229 235 243 223 243 225 230 230 240 259 251 252 251 249 246 246 249 248 248 249 251 257 258 257 253 243 234 231 253 259
219 204 184 216 222 239 236 226 238 240 231 223 221 236 241 265 254 246 240 235 231 230 228 229 230 230 229 229 230 230 232 246 248 253 251 229 201 200
210 217 218 225 237 237 237 229 242 254 213 223 226 248 256 235 232 229 230 221 224 222 225 227 227 226 225 218 214 213 210 207 206 210 206 209 216 220
221 218 232 240 235 235 229 221 223 211 218 256 261 224 233 223 233 219 222 217 210 204 200 196 195 199 205 205 232 232 213 238 265 247 266 265 266 268
169 243 231 217 231 232 210 222 219 250 249 230 232 235 231 226 205 195 189 192 210 247 243 254 253 251 251 250 249 251 252 256 403 295 382 372 245 353
246 248 226 229 224 233 215 225 246 227 223 241 217 199 187 195 256 260 280 247 237 240 245 245 247 248 242 245 247 437 424 416 410 401 389 377 370 367
230 231 231 229 213 231 239 239 218 216 201 196 237 248 252 252 249 238 236 245 240 247 267 263 356 474 447 421 399 389 386 386 381 374 368 365 358 350
241 217 226 235 237 235 228 209 199 213 239 248 250 250 237 238 231 245 248 259 260 292 402 463 433 410 384 373 366 360 360 366 366 361 353 346 349 395
219 228 212 219 213 195 181 224 236 246 248 235 232 232 225 231 249 256 267 321 409 453 397 396 392 378 363 349 343 343 350 345 351 355 372 465 439 414
223 213 204 189 216 227 240 246 240 229 197 214 228 239 244 253 271 348 464 457 422 403 381 380 359 353 338 333 333 345 367 414 488 491 451 418 399 402
193 213 226 239 245 242 226 205 185 232 226 234 241 248 293 420 475 452 424 407 389 368 360 355 373 425 497 501 479 456 462 465 446 420 428 388 392 397
236 242 243 225 190 177 222 228 226 229 238 245 372 512 469 441 417 402 376 354 349 389 497 518 539 520 486 472 452 425 423 400 388 387 394 399 407 412
215 221 170 214 217 216 220 228 236 298 545 503 460 432 407 390 367 341 342 441 419 499 534 514 449 428 413 412 408 391 374 358 351 366 371 373 380 385
219 215 209 218 218 226 251 572 557 489 449 418 390 371 354 340 340 451 405 404 371 376 371 387 371 368 356 332 321 310 306 303 301 296 298 313 339 362
199 207 215 224 297 612 490 367 351 403 377 360 343 330 331 337 398 340 335 330 325 323 320 306 302 301 299 297 340 335 388 394 398 386 388 388 408 350
209 217 237 586 435 372 354 357 350 332 330 340 340 334 374 368 343 325 318 312 307 304 301 303 333 381 395 404 329 328 327 321 319 318 316 318 324 330
226 665 407 378 352 357 351 338 302 341 339 333 336 324 280 221 317 310 306 302 303 365 374 377 373 359 324 319 307 306 301 301 296 295 292 295 296 292
427 384 354 333 329 332 329 342 341 343 339 319 328 355 223 318 303 302 296 345 353 369 379 392 322 308 301 295 291 284 283 284 295 295 314 318 320 330
337 327 316 310 300 334 345 343 337 339 331 316 311 217 356 310 300 294 339 347 330 380 358 310 301 291 285 284 287 284 305 313 308 294 297 308 308 328
319 308 300 296 331 345 341 343 337 327 333 313 312 334 393 306 296 291 340 353 374 314 301 298 287 274 276 275 270 285 297 292 292 305 313 322 335 348
308 300 293 339 335 334 337 338 342 318 303 323 307 328 367 303 289 310 343 360 311 298 291 282 267 279 266 263 292 296 280 308 320 326 321 349 331 367

GFSNE_2pvu_pres_042.txt.gz
Presure
210 202 201 201 206 204 205 207 212 210 231 231 215 228 231 255 230 237 244 229 238 229 229 232 250 250 257 249 245 241 239 242 245 255 262 268 271 271
205 209 207 199 201 207 197 198 200 223 233 216 228 230 243 242 232 242 242 247 222 231 240 242 255 240 235 232 233 232 231 232 233 235 240 244 251 261
206 179 209 206 209 209 220 183 225 230 237 223 228 228 245 232 225 234 239 207 228 239 243 240 227 222 225 222 227 230 234 234 233 232 231 232 233 240
215 215 214 218 223 204 201 229 158 225 220 223 224 244 246 222 231 216 250 230 231 242 220 220 231 238 214 222 220 234 227 227 225 227 227 223 231 235
229 209 216 218 207 193 189 228 226 226 229 237 237 264 229 227 211 231 230 243 223 224 230 254 235 220 209 197 194 194 197 198 198 214 212 208 206 214
227 232 230 239 202 236 229 226 227 232 253 233 254 234 233 230 238 262 219 215 219 219 192 194 222 247 248 251 243 247 254 255 253 264 252 252 236 244
241 172 210 238 236 235 230 228 202 226 236 242 229 236 233 238 231 203 185 193 260 201 241 237 235 233 249 257 260 269 279 292 343 478 493 477 465 457
210 236 239 237 231 227 203 210 219 234 225 236 229 230 207 191 249 255 257 227 219 227 236 244 252 251 254 270 284 320 475 462 441 425 409 405 401 398
229 240 236 232 228 206 221 229 225 233 229 208 204 199 234 255 251 221 225 234 245 243 228 190 259 276 353 473 448 431 416 410 405 403 394 384 376 371
233 232 235 210 223 228 219 223 226 209 211 221 242 259 239 227 231 238 245 239 248 248 279 413 473 452 425 403 394 391 385 381 379 374 362 351 345 341
215 215 221 228 221 225 238 219 214 195 245 251 217 226 234 229 242 239 246 251 322 468 441 438 401 383 372 364 359 361 369 378 386 394 401 405 409 494
225 217 225 230 209 202 198 234 253 233 208 218 178 229 236 240 244 249 333 447 430 405 386 372 357 509 585 556 527 504 497 495 498 501 502 497 444 424
221 211 211 214 222 241 245 226 206 169 222 227 230 234 242 251 352 432 412 390 374 360 385 425 425 436 429 452 452 467 478 460 425 407 406 409 415 420
211 209 238 248 234 228 160 195 222 226 227 233 238 249 331 418 398 376 365 356 428 384 352 344 346 341 338 348 356 360 360 358 349 344 346 352 372 380
235 228 226 178 210 214 219 227 227 230 239 248 365 361 362 350 363 359 356 383 359 346 330 321 321 319 313 313 315 312 307 306 306 311 318 310 317 315
224 150 219 215 232 227 223 224 240 272 370 371 359 347 355 316 354 370 369 332 327 317 323 310 303 306 314 386 394 398 402 344 342 337 333 333 334 411
177 223 225 229 225 227 235 302 354 347 351 337 349 353 351 344 347 371 313 284 276 304 354 375 389 392 381 330 327 322 313 313 310 307 310 310 308 315
223 199 224 226 236 357 345 331 321 310 316 346 353 348 335 336 286 351 234 315 303 362 369 391 376 321 318 311 305 291 286 283 283 281 280 288 315 310
151 230 235 325 353 335 322 307 306 349 348 348 350 332 331 325 395 334 314 302 355 362 389 325 317 306 297 287 278 280 284 312 309 302 300 298 298 313
219 278 360 346 332 316 305 301 348 344 348 346 335 313 325 317 370 328 308 308 349 369 318 313 296 287 277 277 280 275 274 296 290 295 315 317 321 327
388 358 343 329 314 303 298 344 343 343 337 355 233 310 317 312 359 317 300 329 358 315 305 292 283 270 280 272 274 304 297 289 292 302 304 301 317 336
366 344 329 315 303 294 347 351 339 336 250 317 238 328 315 306 359 305 301 341 352 305 295 277 271 271 271 295 300 292 303 314 327 323 315 318 318 331
351 334 319 307 295 344 319 333 272 329 334 304 313 319 315 316 360 293 313 354 314 298 275 271 272 267 313 300 297 285 288 294 300 312 360 341 337 343

GFSNE_2pvu_pres_045.txt.gz
Presure
229 219 214 215 213 213 211 207 205 206 212 205 162 214 213 217 227 219 243 242 233 233 235 250 247 232 237 226 208 208 247 253 239 245 231 232 233 237
228 232 226 217 215 216 214 213 210 210 211 205 216 216 195 168 226 208 229 236 239 236 264 241 228 235 216 228 234 244 250 236 239 223 221 225 227 230
239 235 229 221 221 219 216 176 222 222 222 220 220 210 206 221 239 245 240 232 227 223 250 233 237 241 235 243 261 231 236 217 219 225 225 230 235 227
252 137 237 227 231 228 225 226 224 221 234 159 216 221 226 242 242 242 215 219 221 238 237 245 248 253 231 246 262 205 202 201 197 197 200 200 202 242
225 228 233 237 229 224 202 219 222 218 223 219 229 242 243 241 230 210 222 231 240 244 237 216 226 239 261 258 243 241 236 245 236 234 237 245 241 234
234 223 184 163 238 237 234 241 233 206 247 241 248 244 240 225 215 222 234 236 242 225 228 240 255 240 230 235 198 225 251 259 265 278 292 296 302 312
143 245 226 240 133 159 265 189 248 249 234 243 249 231 223 215 225 238 233 234 216 235 249 262 226 232 241 249 256 261 271 282 299 311 485 535 527 522
249 274 276 266 268 270 261 226 219 221 240 246 219 219 229 248 237 237 235 245 246 226 220 230 240 250 250 257 267 282 309 478 472 460 452 444 436 428
260 171 249 255 263 258 245 228 239 220 216 218 226 229 234 228 237 251 252 228 209 227 242 238 247 253 261 284 387 436 428 416 399 384 383 371 361 360
267 265 263 252 243 241 231 233 214 222 233 236 236 229 236 247 248 221 220 225 237 248 253 248 261 360 417 395 385 442 536 552 550 541 529 512 483 441
256 247 220 213 216 213 219 226 226 225 230 224 232 246 247 180 220 228 236 242 250 250 263 390 386 378 361 408 391 396 428 434 426 447 452 471 501 519
214 215 224 233 227 223 226 229 227 216 243 253 227 176 216 230 237 238 246 249 260 383 368 372 363 388 360 353 352 350 334 336 343 384 408 416 426 432
228 224 219 217 214 216 213 226 243 222 201 187 220 237 231 239 249 252 260 376 376 362 330 335 360 346 343 333 308 332 316 319 314 317 314 320 328 336
210 213 210 219 236 236 234 230 232 223 225 237 244 238 247 252 275 362 356 353 346 370 378 353 336 329 274 325 321 322 374 424 412 401 399 375 371 416
225 229 231 230 231 155 210 227 228 238 227 238 244 251 362 358 334 317 363 362 358 384 356 334 324 261 389 398 383 391 355 339 325 322 320 324 321 325
241 241 211 226 173 225 238 237 244 236 236 279 359 346 324 310 316 355 354 340 377 358 340 324 227 405 407 398 335 329 312 301 301 293 301 303 301 303
201 151 194 218 237 236 231 241 243 358 350 333 323 311 319 357 356 347 337 331 370 333 317 364 392 333 326 315 307 296 290 288 284 305 309 306 311 306
186 198 231 239 232 232 226 358 346 335 322 314 307 318 349 356 348 334 321 350 361 320 327 371 340 326 303 289 284 287 282 275 286 295 299 300 321 336
189 243 243 234 396 366 352 337 323 317 306 306 354 346 339 349 349 317 324 362 332 306 369 349 317 295 286 274 278 268 262 294 299 314 314 314 305 303
318 324 330 346 366 350 334 322 314 305 325 334 344 338 339 314 233 329 325 365 307 331 344 314 289 280 271 272 280 312 310 286 279 291 291 332 344 328
288 324 320 381 353 335 323 313 303 309 326 340 298 294 308 310 325 324 328 366 303 345 334 292 278 267 267 302 303 297 281 286 278 285 293 301 315 344
314 322 384 365 340 324 315 305 293 320 329 343 251 239 234 335 323 321 341 299 322 364 299 281 266 262 307 307 287 277 275 277 284 282 289 301 298 300
322 386 378 348 329 316 308 294 321 316 310 333 241 234 232 321 326 316 350 300 332 333 285 274 262 247 293 276 270 277 273 288 301 293 304 291 308 296

GFSNE_2pvu_pres_048.txt.gz
Presure
213 215 225 221 227 224 222 228 221 225 222 222 221 218 213 222 218 215 185 223 219 227 223 227 165 240 246 237 223 221 211 234 232 236 233 217 220 230
232 230 228 224 221 227 233 228 230 227 221 221 215 222 217 217 225 208 225 227 214 164 188 230 245 256 232 217 225 232 243 236 238 246 237 248 242 232
234 230 227 228 234 236 143 232 233 230 229 227 229 224 204 200 180 224 225 223 221 232 229 245 255 230 218 231 234 248 234 239 227 220 219 221 219 254
235 234 235 239 231 233 174 135 241 245 247 245 244 242 238 234 239 230 169 209 237 247 255 256 222 236 232 244 238 242 204 204 244 246 265 234 234 228
241 239 240 246 229 225 136 227 197 225 219 231 132 231 226 229 222 229 241 233 234 253 251 226 228 232 243 238 221 223 247 247 224 219 226 223 220 230
254 255 252 243 238 238 178 239 242 227 205 229 232 239 246 261 261 267 253 233 246 229 232 220 238 228 227 246 256 238 216 229 237 248 251 260 263 276
240 249 250 250 247 246 242 236 241 240 232 241 249 270 276 266 260 260 237 225 225 230 234 239 238 248 256 234 238 240 233 245 254 258 271 277 305 413
256 246 250 246 247 249 247 249 246 191 256 253 260 267 265 263 254 244 234 226 236 238 229 244 252 224 233 234 248 245 255 264 274 289 399 422 484 567
254 258 260 257 253 257 260 255 270 248 251 266 258 246 235 231 233 229 237 236 237 245 242 197 236 237 242 247 259 267 279 323 370 379 397 387 413 443
264 254 260 251 262 257 251 264 270 275 254 234 219 223 231 237 227 223 231 249 247 232 237 239 238 247 256 269 312 394 388 393 388 368 358 354 347 341
307 303 306 248 238 220 217 224 217 223 228 235 222 217 220 229 241 227 238 236 244 235 234 247 261 263 278 383 382 389 389 372 357 343 332 253 326 322
237 227 231 217 230 221 230 215 217 215 217 227 226 231 237 240 239 238 237 258 236 250 261 266 350 359 325 325 373 365 362 353 332 241 319 315 385 384
237 227 225 232 225 219 223 223 228 212 205 220 244 220 207 255 238 241 246 261 262 276 355 334 314 350 375 359 345 349 347 413 418 399 432 419 393 354
233 232 233 233 235 236 238 210 246 175 223 231 249 237 242 238 242 254 309 356 342 331 318 347 352 361 351 337 330 396 416 359 338 329 318 315 313 310
222 221 222 226 229 231 176 171 185 237 250 239 249 241 355 350 347 346 339 325 318 311 372 358 333 349 335 326 392 415 330 333 304 300 298 296 311 313
222 225 225 228 218 232 238 218 239 235 262 378 365 360 350 339 328 320 309 357 357 360 353 327 377 332 318 391 329 316 303 293 297 289 291 305 300 297
219 201 222 204 154 154 248 274 349 396 373 355 344 334 326 319 308 345 352 348 350 338 327 375 336 316 379 329 302 293 287 284 283 277 307 303 306 306
228 165 150 142 212 271 307 337 390 367 347 337 329 319 308 305 334 350 342 356 315 329 329 352 310 361 334 293 283 277 281 279 285 292 293 289 297 295
147 149 198 322 277 304 338 384 365 343 333 323 314 303 313 336 348 305 366 310 330 328 347 311 345 367 300 294 275 267 274 297 292 291 287 284 290 289
155 233 329 274 296 414 386 367 346 331 321 310 299 318 315 332 339 245 235 316 321 317 354 317 368 297 285 280 287 316 311 282 282 278 277 280 290 304
191 319 276 288 410 397 373 349 332 318 310 300 296 313 307 333 330 235 293 325 327 324 305 330 306 288 276 265 300 300 279 270 273 284 297 300 300 306
306 276 276 346 414 381 357 338 321 310 303 289 316 313 305 330 252 268 289 325 314 338 314 346 293 278 266 259 271 272 277 278 285 283 288 273 305 327
269 261 281 364 394 373 349 332 317 308 296 286 317 306 303 318 321 299 309 329 320 309 328 298 280 271 268 267 275 269 281 277 278 271 268 304 308 311

GFSNE_2pvu_pres_051.txt.gz
Presure
218 214 207 136 204 207 211 219 215 223 223 219 216 212 217 221 192 215 224 226 220 225 226 225 185 220 230 222 228 199 210 186 247 249 247 232 222 225
250 244 240 234 231 231 232 229 225 221 219 219 214 199 158 226 221 222 223 226 228 235 241 244 238 240 241 244 163 236 235 252 252 244 218 216 226 247
244 241 245 238 233 230 227 224 223 222 220 221 223 224 201 221 217 238 257 241 223 233 234 230 236 241 239 237 233 225 236 260 248 231 229 230 241 229
246 250 245 236 235 234 228 225 125 223 226 225 227 189 212 226 246 207 140 230 236 209 261 243 224 239 206 232 243 280 245 236 235 245 240 234 229 233
269 257 247 242 240 236 233 232 232 240 242 248 152 241 222 231 226 187 230 229 238 244 246 250 254 288 287 275 263 248 228 226 238 217 227 234 243 254
250 277 270 271 266 264 264 264 259 257 250 251 248 243 242 233 160 234 240 242 244 254 252 250 281 271 258 254 249 240 240 229 236 244 255 241 227 235
277 250 240 249 252 247 244 242 241 237 242 254 256 252 247 248 239 251 254 252 252 270 264 259 238 237 238 237 236 240 248 248 244 230 232 237 219 225
319 276 245 244 261 246 242 236 237 257 251 247 246 253 260 257 273 268 271 265 271 226 225 229 243 234 230 243 243 260 206 232 226 223 236 256 261 277
309 280 234 236 248 237 239 255 250 248 255 265 264 263 263 265 259 259 233 226 235 238 232 227 233 243 251 248 239 236 251 239 242 258 275 388 380 403
306 272 256 266 268 255 259 266 260 270 249 243 234 226 225 228 229 235 230 225 230 239 242 247 216 258 252 238 247 254 259 273 288 368 399 388 374 367
253 253 253 245 242 237 231 227 228 233 232 225 229 229 218 222 237 240 255 256 259 256 260 260 235 242 236 261 266 269 353 369 372 384 371 359 348 357
227 244 245 245 227 239 224 224 226 207 236 239 243 246 243 247 244 226 230 243 240 243 247 243 249 272 354 353 356 355 347 395 379 358 359 435 417 412
235 235 235 233 235 231 232 230 231 231 233 235 229 175 237 237 234 243 247 247 303 379 379 367 352 346 339 325 346 370 364 373 353 419 384 355 335 322
233 229 227 226 225 226 228 230 231 233 235 208 236 181 210 257 291 334 369 367 362 354 346 337 325 318 351 352 352 342 375 348 373 335 328 312 299 296
227 228 228 228 230 229 235 236 237 236 244 162 160 299 362 395 372 360 351 341 332 329 325 320 354 351 357 337 326 367 336 386 330 306 302 300 297 293
225 227 233 239 239 236 238 185 224 288 159 306 426 395 373 359 347 337 330 322 315 325 339 356 348 353 324 333 358 321 378 322 304 298 290 291 288 309
228 230 232 234 232 246 239 172 162 270 383 401 378 364 347 337 328 318 308 314 328 347 348 365 312 344 332 356 315 375 312 314 288 285 284 300 307 301
232 240 228 235 239 242 214 241 286 374 403 378 358 338 327 319 307 299 318 316 338 344 306 248 307 324 359 317 369 317 296 285 286 288 301 290 287 291
215 227 235 233 244 329 265 286 371 350 380 357 337 322 310 300 292 312 312 328 348 309 246 241 334 338 306 322 344 281 280 276 281 303 280 279 291 308
227 229 218 244 323 276 272 311 366 334 367 347 327 314 302 288 312 313 309 324 323 270 237 227 329 322 308 344 299 283 267 285 298 284 280 290 283 290
229 228 240 253 329 263 284 388 354 327 334 344 322 313 301 285 312 309 303 310 339 290 310 327 335 313 336 301 285 281 275 289 282 276 279 295 271 284
227 239 255 312 260 277 290 375 349 333 319 310 330 316 308 291 288 303 315 303 332 303 319 322 339 336 318 287 277 272 278 279 280 278 277 267 271 273
237 242 289 313 265 278 330 361 309 347 321 324 312 308 317 295 293 290 311 310 327 304 329 328 345 352 299 277 270 273 294 277 273 269 258 265 281 290

GFSNE_2pvu_pres_054.txt.gz
Presure
286 276 265 260 265 247 258 245 247 237 233 233 221 203 255 225 213 217 218 224 174 213 198 216 225 219 226 244 217 255 232 230 223 228 236 236 225 236
271 286 272 276 262 252 247 249 248 240 233 232 229 213 209 209 221 218 223 175 224 194 218 223 228 215 250 228 255 217 235 223 243 254 254 245 244 195
345 285 286 267 271 259 257 247 236 241 242 229 220 223 227 225 225 223 213 212 186 217 225 230 247 254 217 238 238 241 231 256 250 257 222 206 297 277
327 336 328 273 310 271 247 261 246 233 219 220 221 219 214 218 209 212 212 213 152 229 216 251 252 243 237 134 235 244 253 245 262 240 268 273 271 261
336 331 321 321 310 254 240 252 256 248 238 230 228 225 223 221 223 227 229 124 255 252 245 235 233 234 236 242 247 254 258 257 257 263 266 255 255 251
352 342 334 334 315 297 277 262 247 250 254 251 251 254 255 261 271 263 250 241 236 234 244 251 249 248 246 254 262 255 276 280 275 236 236 234 234 233
345 347 338 325 319 303 281 257 244 233 241 232 237 246 247 243 244 245 244 253 261 263 265 275 271 275 272 276 279 273 248 237 230 237 237 242 246 250
294 302 337 333 306 310 275 257 248 241 234 240 231 243 244 243 250 255 252 261 252 274 260 275 268 262 254 236 238 245 245 253 253 252 253 250 241 229
293 286 278 290 299 292 271 265 263 259 239 233 242 247 258 268 278 272 264 256 245 230 231 240 240 242 251 259 264 257 253 252 252 253 255 249 246 251
237 252 260 270 279 280 274 267 257 257 276 268 259 255 237 222 225 229 231 230 236 241 243 245 243 241 246 250 252 247 242 244 251 254 244 288 351 386
239 240 239 240 234 233 231 233 220 225 225 225 228 225 231 232 243 237 240 239 242 244 248 246 243 240 194 245 266 274 298 311 373 366 366 366 381 383
231 233 232 234 236 236 236 234 239 234 234 233 232 237 241 236 231 244 240 240 243 240 209 182 274 278 305 317 368 369 368 363 357 349 381 364 373 355
223 223 228 229 229 229 231 234 236 237 239 240 228 230 246 176 236 213 326 315 174 182 306 297 296 315 359 345 337 343 342 355 383 376 347 345 363 382
227 220 219 231 228 227 229 236 233 234 229 227 239 248 203 160 171 288 237 349 379 370 367 359 347 340 334 331 321 327 350 361 372 338 367 375 327 333
216 217 221 225 225 223 225 229 235 238 241 256 331 299 278 266 372 391 380 363 352 345 340 336 326 321 322 332 342 341 352 347 338 374 333 336 329 306
215 217 219 222 218 213 233 225 242 246 270 325 273 272 390 362 389 365 347 334 326 321 318 315 321 324 335 344 356 326 323 327 359 332 382 312 303 286
216 215 216 223 217 226 237 239 243 258 316 271 270 384 349 382 360 339 323 313 305 304 318 319 335 356 349 312 279 240 326 380 321 373 320 288 284 272
216 212 216 218 223 228 230 247 253 322 282 268 397 368 339 335 345 329 315 300 306 314 316 313 341 316 304 305 237 291 373 314 373 308 289 277 308 296
216 213 219 233 243 242 240 249 264 336 272 293 385 361 308 323 340 326 316 294 292 310 314 305 335 312 297 327 228 360 330 365 295 293 281 307 291 296
204 223 246 243 244 231 248 258 342 278 273 378 356 312 349 333 320 329 319 305 291 289 311 316 328 312 309 319 326 321 360 298 286 279 264 292 286 294
239 243 242 242 236 244 256 341 288 265 350 367 340 312 294 324 340 327 321 321 304 295 289 316 320 312 317 326 329 310 352 281 268 264 285 295 283 279
237 241 244 240 243 260 303 299 258 287 334 308 305 305 298 294 300 344 345 337 322 299 299 302 319 316 321 340 305 329 321 276 267 286 283 282 275 273
251 258 260 243 259 275 326 252 279 352 311 301 328 327 319 302 311 314 334 344 348 346 346 338 333 320 331 347 360 321 288 281 274 294 284 266 267 254

GFSNE_2pvu_pres_057.txt.gz
Presure
288 280 265 258 326 274 264 228 254 244 247 252 249 249 243 245 238 227 217 219 208 213 214 215 208 213 210 215 220 228 218 215 214 223 229 239 243 252
269 253 283 365 403 393 296 292 278 272 259 248 226 236 235 235 225 229 218 221 220 226 218 216 215 214 211 214 213 215 221 219 221 223 233 238 217 248
260 268 359 370 374 370 313 290 280 255 252 254 246 241 229 237 231 227 228 230 224 203 213 216 216 215 214 217 180 217 219 220 221 230 252 154 243 245
285 262 383 367 354 333 338 306 286 276 257 249 250 242 253 253 240 237 231 218 229 231 203 220 203 219 216 127 218 219 217 229 245 141 244 245 235 251
278 328 399 377 347 336 323 320 308 283 273 261 246 245 235 238 230 237 237 239 221 223 219 219 222 219 222 221 230 234 252 253 204 249 255 255 249 247
266 242 309 364 363 363 329 330 318 288 269 279 263 248 232 238 237 238 229 230 231 232 231 235 243 252 252 263 243 252 244 268 279 270 260 257 264 275
273 267 270 302 312 312 319 321 342 320 305 281 264 258 248 246 240 230 220 227 234 231 244 250 243 256 245 245 252 252 255 271 274 279 245 241 234 229
247 244 258 258 265 266 292 291 293 300 298 287 266 261 248 242 239 238 237 240 244 234 231 246 246 266 289 286 283 238 239 239 239 242 242 242 244 247
237 228 233 240 251 250 253 245 262 273 273 267 263 259 255 256 255 255 243 252 267 276 260 265 235 239 242 239 236 238 240 241 242 244 242 243 247 246
221 221 219 233 233 230 238 237 238 236 232 231 233 231 240 229 229 229 229 231 231 232 231 235 236 243 244 247 201 239 250 247 231 215 266 266 279 282
218 224 219 213 225 219 224 236 233 229 228 230 231 233 234 235 234 237 236 237 239 239 242 253 250 250 252 259 286 200 290 322 321 318 318 307 301 349
218 218 223 219 218 218 224 224 224 227 225 223 232 227 224 241 234 237 240 242 274 293 338 332 327 315 191 283 284 295 312 380 377 371 368 360 355 353
216 220 224 217 221 223 218 219 220 223 217 223 235 226 237 251 241 265 346 324 170 277 321 334 393 390 379 364 357 360 358 355 354 353 346 340 351 368
215 215 223 214 217 218 218 217 213 224 221 228 243 234 246 250 282 350 297 273 341 391 396 377 360 354 348 339 327 327 333 333 335 341 361 362 369 338
233 222 229 210 213 229 236 218 214 221 243 246 246 240 258 284 343 291 269 379 354 381 361 348 336 325 318 314 310 318 318 338 352 354 379 325 326 357
227 232 204 210 242 206 237 224 226 252 248 245 246 261 289 321 272 279 375 357 337 357 342 329 319 309 306 311 305 316 352 351 323 314 305 317 387 341
197 245 247 223 206 234 208 242 242 247 257 246 268 292 311 263 279 372 346 315 351 343 336 325 309 302 306 314 302 327 315 311 307 254 240 370 329 352
194 254 245 224 232 170 244 248 261 271 268 272 290 310 255 280 344 313 328 299 299 334 333 329 317 293 297 319 302 327 315 304 251 237 320 321 367 313
243 243 245 161 252 259 259 254 259 255 272 279 311 259 297 352 328 304 311 305 296 294 338 329 332 312 287 300 304 333 317 306 326 334 325 358 315 279
239 242 235 244 251 256 258 250 277 270 281 310 261 292 315 348 298 300 314 330 311 297 306 348 351 332 321 284 289 319 324 322 331 331 361 316 284 320
236 247 251 254 262 265 259 273 266 278 251 267 286 327 336 298 316 327 333 332 331 323 314 313 336 349 359 336 284 323 314 337 308 365 334 281 272 277
234 251 255 261 262 272 245 259 275 253 268 275 348 323 336 367 362 356 349 340 330 331 330 318 332 347 353 367 355 333 317 338 291 343 298 276 266 291
250 254 260 263 269 242 253 273 252 268 276 358 320 369 365 366 371 366 362 356 348 330 331 327 341 352 354 363 365 319 329 307 345 300 278 262 287 290

GFSNE_2pvu_pres_060.txt.gz
Presure
243 260 279 280 268 265 258 339 379 379 350 290 274 248 239 228 244 238 223 228 227 244 237 236 211 209 207 215 215 219 217 208 215 216 217 227 206 206
262 260 278 266 261 246 239 315 416 415 367 281 267 256 244 245 238 240 229 236 239 235 227 237 234 228 225 229 215 227 210 207 222 224 216 212 217 220
266 268 265 255 242 231 299 397 378 369 343 288 277 255 257 250 242 244 242 241 237 236 215 224 223 211 217 215 219 216 221 225 216 218 208 214 218 212
255 267 254 241 230 218 256 384 368 356 334 284 265 264 259 257 268 260 245 242 237 234 232 220 226 228 220 214 213 221 213 226 210 222 215 215 224 219
267 256 240 232 225 244 246 281 394 362 339 294 275 269 262 261 253 261 257 249 252 234 236 237 238 230 230 226 227 222 221 223 220 227 219 222 230 216
256 241 229 232 237 234 231 250 272 329 378 326 289 274 264 252 249 238 250 242 261 247 238 226 238 230 236 238 240 237 236 231 226 230 229 234 242 250
242 236 227 233 217 235 244 224 242 249 258 360 351 315 279 262 251 250 242 249 239 240 238 221 229 244 241 239 232 234 230 229 230 228 232 241 246 265
243 234 245 235 238 232 218 238 230 236 250 245 248 254 312 303 292 266 270 263 255 247 243 250 254 248 243 242 243 244 243 250 259 261 251 245 232 233
237 227 245 239 233 228 229 231 225 229 228 228 230 236 238 237 236 232 231 234 236 245 244 254 231 234 236 237 239 239 241 245 246 244 242 241 242 243
230 227 242 243 233 226 224 224 223 219 226 224 219 220 225 220 222 221 226 229 228 225 229 234 238 228 227 227 231 232 251 253 252 252 252 241 161 170
238 236 227 249 243 238 227 215 226 213 216 213 225 218 216 222 219 221 223 236 239 237 221 244 250 253 254 258 268 222 168 306 307 303 303 306 305 304
237 237 246 239 247 245 245 235 236 205 234 244 210 237 224 221 227 251 251 241 247 242 247 288 371 340 311 297 292 299 405 405 399 391 386 379 372 366
236 239 240 234 237 248 248 222 245 240 236 230 243 221 230 243 243 252 267 274 278 323 350 294 271 318 378 391 380 376 370 365 357 352 347 341 338 337
242 222 200 204 206 213 245 218 252 250 239 234 239 244 247 260 261 276 285 291 350 296 266 293 360 369 364 364 348 343 340 333 328 327 324 320 319 321
236 238 251 247 246 233 250 250 244 242 249 254 249 258 262 257 261 277 343 310 267 286 296 343 321 315 351 352 328 322 320 320 320 328 320 340 375 366
265 264 254 252 253 249 244 244 247 247 231 254 264 267 265 253 274 329 274 263 293 300 367 326 304 313 298 336 330 318 313 302 319 324 310 340 319 313
257 253 251 242 236 231 226 228 232 251 258 264 265 269 249 272 323 261 275 288 335 355 315 297 296 315 300 293 324 326 314 298 296 320 309 334 316 318
236 232 228 233 234 232 236 243 247 259 264 267 269 284 260 288 263 283 286 351 318 311 322 322 319 317 324 287 317 326 325 318 293 300 311 327 306 254
224 216 217 224 224 227 235 243 259 266 268 273 282 253 295 265 284 294 346 302 367 336 347 349 338 331 325 314 293 326 342 331 328 291 292 326 309 332
222 219 224 226 227 235 242 257 266 270 275 280 267 296 277 280 291 338 312 366 345 296 314 356 351 341 326 323 306 306 332 345 354 306 293 311 325 334
217 222 226 228 236 241 253 266 273 277 275 264 297 278 279 285 333 310 336 381 335 363 375 361 358 355 342 325 326 310 322 344 349 302 306 320 325 337
226 227 231 238 245 264 271 273 287 272 263 296 278 271 281 336 301 329 330 377 367 486 466 438 369 212 342 349 332 322 331 345 344 370 364 326 328 355
230 234 240 245 275 280 280 281 266 266 289 289 264 282 332 318 320 351 323 366 370 517 504 486 381 376 374 371 356 352 356 351 362 371 293 290 317 309

GFSNE_2pvu_pres_063.txt.gz
Presure
195 227 218 259 251 273 276 272 272 266 245 240 237 253 410 359 323 290 270 243 236 244 246 232 222 212 209 219 196 206 211 206 206 212 205 209 208 214
236 229 257 253 261 277 264 265 262 249 242 228 244 355 362 372 306 287 267 247 253 236 237 231 228 247 227 234 213 196 224 217 211 202 202 211 213 223
248 252 249 261 278 264 254 259 248 239 230 234 242 381 336 323 291 280 263 242 237 249 254 228 246 223 232 228 213 218 229 239 221 208 208 208 228 220
250 246 262 283 264 252 254 252 243 244 229 243 241 256 360 292 282 279 253 253 253 264 238 228 229 241 230 241 231 233 237 197 198 235 222 220 223 219
239 251 279 269 256 248 251 251 239 241 227 239 235 241 244 297 283 269 268 253 253 250 245 252 245 243 240 231 239 234 240 226 222 236 226 224 226 219
249 274 263 254 242 246 242 245 231 243 244 233 231 223 232 234 292 274 269 269 266 256 262 253 258 252 244 247 238 242 240 241 232 221 236 236 218 220
267 253 268 242 242 254 244 238 229 248 245 239 234 231 217 222 225 244 267 253 260 262 268 249 265 253 254 253 251 240 238 244 224 225 228 230 236 231
254 246 241 249 243 246 238 235 239 248 254 248 242 233 252 218 206 218 215 223 220 241 260 234 241 235 252 249 249 246 253 253 249 248 254 250 251 252
246 249 236 247 263 216 238 233 238 245 242 239 241 245 245 226 249 244 210 230 215 218 217 215 214 217 224 229 234 232 233 235 236 238 237 239 239 240
274 273 243 242 221 231 234 233 240 226 205 229 251 251 200 254 247 243 205 236 220 218 226 228 175 243 248 247 241 241 240 236 234 234 236 243 252 253
290 244 208 218 234 233 238 243 236 205 203 256 253 259 258 250 242 238 247 247 246 242 241 241 249 252 261 267 260 253 249 250 256 260 267 323 319 148
239 214 223 232 215 232 236 232 238 249 258 261 227 250 249 251 252 254 253 261 267 266 270 261 263 286 295 384 324 314 305 292 281 290 287 393 386 382
230 232 231 212 217 233 236 247 256 259 258 243 240 238 235 243 242 259 267 272 270 273 278 251 290 338 281 270 279 306 339 355 337 333 378 362 355 349
237 228 223 243 250 252 258 261 247 238 237 238 237 238 239 247 260 267 270 271 274 290 254 316 284 268 293 308 346 370 353 317 319 319 360 338 327 325
268 265 261 254 259 263 242 238 231 228 225 227 229 233 241 253 267 271 274 279 280 261 314 274 276 303 350 336 301 305 302 304 311 318 352 333 316 309
266 262 258 240 235 230 226 224 223 226 230 228 235 239 249 266 271 276 278 271 267 304 269 294 353 332 308 359 352 332 324 315 316 332 306 337 328 299
230 227 224 219 215 220 226 227 219 221 226 231 241 250 269 274 278 281 268 306 287 266 297 341 307 336 339 350 286 292 336 327 322 332 303 341 339 333
223 219 216 222 224 226 227 222 222 227 231 240 245 271 279 278 280 269 308 280 265 291 327 327 334 333 366 352 302 308 343 333 328 327 318 310 339 339
215 219 220 221 226 232 226 224 228 232 239 249 269 280 286 284 267 304 274 284 288 333 320 350 325 373 368 351 345 352 347 339 331 326 328 312 318 340
223 231 226 225 226 225 226 229 235 242 254 275 281 278 269 273 297 273 275 287 347 302 318 329 338 376 378 421 437 361 359 351 339 330 329 322 319 332
233 217 224 226 225 229 236 239 249 269 281 283 279 275 285 303 283 270 285 378 305 317 322 334 338 379 400 498 476 249 217 362 356 340 333 335 327 348
246 228 222 230 235 238 248 263 287 287 286 281 294 299 311 275 270 283 319 320 328 324 327 340 325 351 383 456 508 442 374 369 372 361 337 338 354 356
221 227 229 233 244 256 293 288 282 284 282 290 334 315 279 267 280 302 380 324 335 334 343 347 359 356 336 384 389 396 387 379 377 377 373 377 377 381

GFSNE_2pvu_pres_066.txt.gz
Presure
192 193 181 194 199 240 248 261 251 252 281 267 256 256 256 254 249 249 249 408 373 341 299 270 262 248 237 256 232 219 215 218 219 203 203 210 213 210
189 167 193 200 261 237 256 253 253 281 269 263 252 252 244 252 262 242 238 363 332 315 297 255 259 231 241 233 229 238 217 224 221 218 214 208 219 199
165 218 226 236 237 255 247 253 271 267 261 253 255 244 237 245 256 257 240 252 305 299 275 267 253 250 244 254 240 241 232 243 228 217 230 211 222 207
234 239 238 236 253 254 248 262 262 255 255 245 254 246 237 220 267 265 251 227 245 284 271 260 239 233 242 243 264 240 249 245 228 226 227 221 228 219
234 270 224 253 250 245 272 258 259 258 239 257 250 237 237 251 242 258 243 249 218 216 262 241 250 229 230 239 240 222 238 230 228 234 244 238 228 229
254 252 250 249 241 275 264 268 242 243 244 263 235 236 237 250 234 244 266 234 232 220 261 229 254 260 250 241 247 242 240 238 244 235 245 229 230 237
250 245 243 249 272 265 256 248 254 244 266 225 235 232 239 243 204 233 209 262 241 254 227 284 214 236 264 228 272 229 243 244 260 258 257 252 253 248
246 247 278 266 266 253 254 244 262 247 219 233 235 239 245 240 245 261 259 256 246 248 208 235 236 241 236 227 226 226 222 221 231 245 255 240 250 251
260 270 262 269 253 307 263 273 244 208 225 230 227 238 240 250 263 262 252 244 241 240 243 249 247 246 241 238 235 233 233 233 236 246 241 238 237 241
259 266 255 254 282 286 279 239 216 228 228 215 233 247 260 265 262 244 237 232 237 237 243 249 253 259 255 253 253 252 250 247 245 243 244 245 248 250
251 250 276 270 265 252 244 226 235 230 219 240 253 265 267 244 238 236 229 226 233 234 243 254 269 271 270 267 266 266 271 273 269 260 256 276 280 287
244 247 263 264 277 248 244 240 238 251 258 263 269 243 234 227 223 227 235 235 236 244 252 271 274 276 275 277 281 285 289 267 262 327 320 308 296 288
236 242 281 264 263 254 271 270 270 260 242 237 228 227 226 225 226 226 230 234 243 250 269 277 276 287 283 274 270 285 310 299 281 271 273 314 324 368
265 265 272 284 282 278 253 241 233 226 227 227 223 227 231 230 225 230 235 241 252 268 283 286 283 278 271 310 288 278 270 338 346 331 323 322 308 304
224 253 244 239 235 229 228 222 219 224 224 226 225 231 235 230 230 236 242 250 267 283 288 285 274 289 294 268 292 330 329 320 348 334 337 357 354 325
240 235 233 226 224 219 224 221 217 228 228 227 233 234 229 231 239 242 254 273 286 286 282 277 290 290 261 298 341 303 334 324 330 344 375 346 289 330
220 228 222 218 221 216 215 219 231 236 228 227 229 229 236 240 248 266 284 288 281 286 283 304 288 271 327 325 306 322 327 338 361 367 372 351 304 338
234 225 217 216 216 212 221 232 228 240 231 228 230 238 242 257 283 292 292 286 287 298 310 286 278 320 310 325 322 325 327 363 370 365 354 354 341 349
235 216 213 209 209 225 227 245 237 227 227 235 241 253 286 296 293 286 280 289 315 312 263 286 347 306 336 325 333 325 346 380 441 447 422 364 349 347
215 207 207 216 222 227 233 235 228 228 238 246 298 300 291 279 319 326 294 288 290 266 283 352 306 341 337 358 342 327 363 391 460 325 269 422 368 354
209 217 218 219 226 228 230 229 235 244 277 299 282 294 344 323 288 256 286 251 265 268 316 302 339 353 355 360 353 337 352 388 406 453 472 452 399 364
220 216 218 225 228 237 235 242 259 300 295 298 296 331 346 344 346 344 332 263 276 297 317 329 353 309 296 294 309 310 326 352 371 395 394 394 386 372
216 222 227 219 239 238 244 271 300 292 299 310 333 339 352 350 335 331 327 299 282 323 321 346 301 299 301 296 297 300 297 306 308 303 356 386 387 376

GFSNE_2pvu_pres_069.txt.gz
Presure
181 182 187 191 194 195 195 197 214 235 265 259 250 251 277 269 263 248 264 244 261 259 283 254 361 320 304 274 257 246 251 239 232 227 231 218 223 227
184 189 194 193 192 191 231 247 237 258 256 254 254 262 279 263 246 259 260 250 264 238 311 286 233 330 290 259 254 245 237 238 230 225 232 228 220 218
189 184 196 196 211 250 248 241 251 262 248 252 256 271 265 262 243 266 239 249 260 249 243 267 224 242 303 261 245 245 237 237 230 229 235 227 222 231
195 199 199 253 227 261 234 245 257 252 254 282 271 261 250 258 261 241 242 236 259 213 263 264 227 251 239 244 239 248 241 250 236 234 240 229 231 227
263 240 226 259 251 254 259 253 253 258 281 265 263 254 250 247 247 224 240 247 245 269 220 261 246 251 232 266 242 232 231 234 262 231 229 229 245 244
241 267 238 248 242 263 249 247 259 274 266 270 255 267 270 250 216 232 231 244 253 271 266 268 228 241 284 231 254 249 242 252 234 240 230 232 232 231
266 249 241 264 256 251 246 278 275 271 260 260 294 275 250 221 218 233 236 253 273 267 259 245 239 237 240 237 242 238 249 246 242 242 248 251 228 243
254 260 259 252 252 265 282 271 258 253 291 289 281 250 224 226 234 234 256 272 267 249 239 237 228 222 225 228 235 243 247 245 241 231 274 228 270 238
261 243 239 259 255 272 270 250 254 270 258 266 251 241 237 239 247 262 272 261 239 233 227 227 224 231 231 230 233 234 244 257 262 257 254 250 250 239
241 238 257 261 266 269 254 242 250 262 278 262 254 251 256 264 269 256 238 232 228 226 226 227 226 225 230 234 242 251 267 277 207 271 267 264 260 256
258 258 259 265 271 260 242 237 237 289 278 277 274 270 248 241 236 228 228 227 227 232 235 233 229 230 236 241 252 271 285 292 283 280 285 283 278 271
240 245 253 256 256 240 267 284 287 283 252 246 234 231 229 229 228 226 228 228 233 242 231 229 235 240 242 257 276 289 290 285 288 286 280 278 277 276
239 250 242 250 248 253 237 250 241 238 234 228 226 223 225 223 222 237 244 229 231 231 233 239 243 251 271 287 290 282 289 283 281 288 313 295 283 281
247 240 241 244 237 229 239 235 226 229 226 223 224 221 218 230 238 233 239 233 231 237 242 247 262 285 291 288 285 289 286 291 309 300 270 284 337 338
243 234 231 246 227 226 232 232 229 223 222 222 215 214 227 231 242 240 231 231 241 250 265 292 297 294 282 289 278 301 314 306 277 292 361 310 312 313
234 222 235 248 241 222 215 234 226 220 217 213 211 225 231 240 237 230 237 247 266 305 304 292 284 295 296 290 329 301 275 290 367 317 339 321 325 326
233 228 243 237 239 235 240 238 222 215 208 216 225 226 232 235 231 242 268 306 300 285 308 340 303 334 278 281 271 282 311 320 344 334 339 348 324 336
230 244 243 233 235 236 229 220 207 212 221 222 225 228 239 237 252 307 300 294 351 334 338 333 307 302 263 265 280 328 321 350 351 355 350 340 357 383
234 241 245 235 235 217 213 214 217 221 218 225 228 242 245 266 307 303 334 334 358 363 347 348 343 330 298 282 330 336 359 353 351 350 339 361 383 407
226 244 240 230 211 215 221 220 218 220 226 231 245 253 297 306 300 329 346 353 367 355 343 335 332 310 291 310 327 350 300 299 328 338 349 364 395 400
241 234 217 214 221 224 217 217 224 230 242 249 264 291 301 302 318 343 332 367 354 344 331 328 316 295 309 338 311 298 301 297 296 292 297 341 378 397
231 230 216 223 217 216 219 225 231 242 249 277 287 300 298 311 344 339 340 362 354 336 318 319 298 301 337 297 295 296 284 274 270 279 296 299 300 309
218 217 219 217 216 224 222 233 245 251 277 284 300 292 306 351 349 358 377 363 342 328 323 294 295 349 355 300 290 274 265 259 251 251 253 257 258 269

GFSNE_2pvu_pres_072.txt.gz
Presure
177 177 180 186 188 185 189 193 188 200 200 226 247 249 250 263 256 248 286 265 262 257 270 233 248 255 219 237 253 284 318 315 260 250 230 235 235 222
172 181 154 184 177 196 173 198 198 201 206 261 249 248 257 255 247 265 267 263 253 270 245 246 255 278 242 226 256 244 309 265 258 251 244 236 232 232
177 168 191 194 187 193 204 199 202 264 237 215 255 253 262 250 274 278 273 264 273 256 233 242 245 269 266 295 265 298 239 257 253 240 238 231 233 245
183 193 182 192 164 203 193 245 271 231 213 245 269 258 258 291 260 260 259 260 261 244 216 230 255 267 267 267 246 262 266 228 257 246 251 247 236 248
187 199 195 203 213 232 235 261 246 232 247 261 260 273 271 283 252 281 286 281 246 231 234 234 267 275 260 244 244 250 246 235 257 254 244 246 244 238
208 231 204 237 236 241 240 244 260 251 258 256 269 278 258 250 273 283 276 253 234 237 241 249 276 267 246 240 234 229 225 231 244 259 242 255 247 240
269 262 264 259 237 256 241 252 266 256 259 271 270 264 243 262 269 269 251 243 245 232 271 273 264 242 239 230 228 221 221 225 226 226 240 263 271 241
223 160 238 251 251 257 262 252 252 275 274 291 269 243 240 255 266 269 258 258 266 269 249 241 233 229 231 229 229 230 228 224 218 221 228 233 234 243
255 250 262 248 255 259 239 260 257 268 268 254 245 252 241 258 276 260 272 257 239 236 231 230 229 228 230 228 231 241 238 230 225 227 231 236 239 247
264 253 253 261 251 238 261 251 259 258 256 258 263 236 279 264 250 243 235 229 225 223 222 221 230 240 242 229 231 231 231 233 235 237 240 244 253 263
262 259 246 244 229 254 244 254 247 254 245 246 247 247 239 236 229 224 222 220 222 214 225 239 236 230 238 236 232 237 240 244 248 255 267 284 293 291
251 238 240 247 256 240 236 250 239 254 240 231 230 232 217 223 222 219 221 220 213 222 233 246 247 238 230 239 241 243 254 264 279 291 295 292 286 281
238 237 247 248 240 234 242 240 239 237 247 236 226 221 206 233 227 222 217 212 225 228 235 236 236 238 242 254 270 281 304 303 294 288 282 275 281 283
240 245 248 238 235 238 242 239 228 239 240 243 238 247 247 236 224 214 216 228 227 233 230 241 242 253 276 310 312 304 278 300 301 308 316 297 325 329
254 242 237 235 231 242 236 233 233 245 238 238 239 241 239 223 215 217 227 223 231 229 242 252 279 304 303 298 343 348 349 327 261 344 279 269 279 291
236 237 232 229 240 238 220 239 242 244 232 226 239 232 214 216 222 221 224 229 239 252 273 306 312 354 360 366 361 355 340 329 327 324 265 286 303 323
235 230 231 226 243 221 235 230 235 247 229 233 220 213 221 218 219 226 234 250 258 309 301 316 345 340 360 358 348 348 351 349 338 312 298 326 340 352
227 228 230 239 249 234 228 233 236 246 235 215 217 222 216 220 229 239 252 263 303 304 311 354 349 343 355 350 343 336 333 329 300 303 338 307 330 348
227 231 233 246 248 230 239 235 245 232 214 219 218 218 224 232 242 253 287 297 297 308 357 353 354 354 360 343 332 336 318 292 307 340 291 289 290 303
238 238 242 248 242 236 233 239 218 217 218 218 221 225 233 241 252 284 291 301 306 347 363 363 374 377 354 335 319 321 304 308 348 285 299 291 296 291
251 261 258 240 234 221 216 218 219 221 219 223 226 236 240 250 279 288 304 295 321 394 437 420 387 366 343 326 323 305 305 340 299 287 273 274 264 264
256 247 242 233 222 234 218 220 217 220 223 225 236 242 249 275 285 304 291 310 383 349 340 381 369 344 329 323 309 299 316 362 284 269 257 265 252 249
234 218 221 223 217 215 214 216 222 223 228 235 245 249 275 280 303 292 300 386 355 335 334 336 328 323 323 327 273 303 328 305 279 266 245 252 256 239

GFSNE_2pvu_pres_075.txt.gz
Presure
126 162 167 163 121 172 186 173 192 193 196 195 203 216 204 245 254 254 248 257 259 271 270 267 262 286 254 237 235 291 288 249 282 257 312 316 350 242
170 167 155 145 168 153 171 174 191 197 196 209 206 208 255 267 247 246 253 253 263 269 267 273 293 271 248 223 236 275 297 277 295 306 310 300 315 245
161 154 165 168 199 197 196 192 193 203 218 233 265 261 252 250 258 259 254 274 272 255 281 290 285 255 232 230 259 278 264 262 300 283 286 288 257 240
196 172 186 203 185 208 210 191 217 230 236 261 237 251 235 262 271 253 271 271 264 245 270 281 272 238 230 241 283 277 249 243 286 242 254 258 249 254
185 196 186 133 228 203 205 226 254 277 256 246 222 257 261 265 280 276 287 269 250 259 273 254 242 245 233 252 278 269 247 245 246 229 270 247 258 242
207 218 184 236 223 238 208 228 251 258 261 262 252 255 254 275 293 275 264 251 243 243 270 263 250 254 269 257 243 236 227 229 228 227 230 227 234 252
205 209 222 218 223 232 240 274 235 219 252 246 263 262 273 276 272 275 295 295 295 283 277 270 267 250 242 230 226 223 224 224 225 228 230 229 227 227
248 234 252 270 214 276 271 226 264 255 237 261 244 267 266 268 254 252 249 278 277 262 247 239 229 223 222 223 215 219 239 239 236 233 228 228 227 229
271 248 240 235 279 235 258 258 247 260 249 257 247 257 259 259 245 245 237 234 226 219 228 221 218 225 222 213 220 232 241 251 239 239 228 229 228 225
244 226 240 266 274 236 255 252 250 238 240 257 243 256 252 243 255 244 230 228 223 216 229 225 225 221 215 221 231 233 237 235 237 235 233 232 230 230
283 289 241 276 232 255 235 240 241 240 245 245 240 250 242 238 243 247 246 244 222 219 232 227 219 215 224 231 226 234 231 241 245 244 247 251 250 249
226 251 238 256 254 243 236 237 235 238 253 238 240 242 245 236 247 242 240 244 247 241 236 214 217 223 225 230 234 239 252 260 269 280 288 308 311 310
247 271 256 241 244 246 235 237 249 248 236 232 243 239 236 248 246 240 228 240 234 212 215 221 223 223 230 236 252 259 285 309 312 332 333 317 295 294
254 247 237 235 237 243 234 251 241 235 235 229 247 234 241 235 247 238 228 234 214 218 222 217 222 230 245 258 302 314 337 361 365 350 376 361 347 348
248 243 241 237 239 240 249 238 237 234 235 231 249 225 237 235 231 252 237 214 219 219 218 222 235 253 262 312 306 328 362 358 354 378 365 352 359 277
245 258 246 249 246 242 237 232 229 230 230 236 254 226 236 245 238 235 218 218 217 220 227 240 251 280 310 300 319 359 362 354 360 372 359 345 347 349
246 246 245 245 238 236 232 231 230 227 240 238 239 246 228 248 222 218 219 218 223 229 240 251 279 309 295 317 355 376 368 362 371 356 345 336 334 320
247 246 245 235 233 232 229 230 234 240 229 243 258 231 226 220 222 218 221 224 231 241 252 279 300 302 311 372 364 431 406 386 364 349 339 323 298 302
246 245 238 237 234 237 234 235 233 241 259 230 244 217 223 216 216 224 225 231 239 251 266 296 310 308 386 357 381 412 399 372 350 338 332 296 301 338
243 239 237 229 238 227 235 243 255 257 230 215 224 217 214 216 224 226 231 238 249 268 293 314 309 381 367 328 325 363 362 346 333 337 309 299 326 301
237 237 238 240 240 246 252 255 254 223 226 224 216 219 216 224 226 229 239 248 267 290 310 301 372 365 340 320 324 323 327 345 332 321 294 313 341 294
246 247 250 253 256 252 242 246 238 229 232 218 223 216 225 226 229 238 247 264 287 302 299 327 348 356 327 328 325 316 311 311 317 285 299 321 319 280
245 248 251 255 254 255 251 257 226 218 218 215 218 226 226 231 239 248 263 285 296 297 312 365 334 326 325 325 305 293 295 295 294 302 318 334 299 272

GFSNE_2pvu_pres_078.txt.gz
Presure
122 130 196 193 191 153 198 152 193 170 135 192 185 204 212 205 220 273 244 240 216 271 268 273 275 282 259 296 281 272 251 236 252 227 268 299 304 314
131 168 189 131 134 152 130 135 187 151 190 147 197 207 207 237 231 237 257 250 257 258 274 265 282 273 251 278 280 249 243 235 267 279 247 298 283 303
113 132 198 122 124 159 177 162 202 194 167 156 211 203 211 229 220 231 259 260 275 274 305 280 272 255 247 269 261 242 240 242 275 274 247 287 282 283
207 193 191 211 206 204 205 178 211 209 203 231 245 223 217 255 266 261 264 262 275 267 298 259 254 254 244 278 266 254 253 271 277 260 244 252 230 241
188 181 196 197 211 213 215 220 266 257 238 250 262 216 267 209 251 261 259 253 257 272 300 289 287 277 287 272 276 273 265 244 237 227 229 230 231 230
202 202 197 200 250 193 256 240 218 240 279 230 234 246 246 247 245 261 251 274 270 261 257 250 243 247 259 248 238 231 228 224 224 218 218 223 227 230
209 208 240 204 211 246 265 253 242 234 233 248 258 249 240 248 252 248 255 263 261 259 249 239 239 231 224 226 226 220 223 223 216 214 218 233 235 235
217 219 245 197 270 274 273 279 252 251 274 201 264 250 241 241 242 243 252 254 249 251 254 246 232 228 219 220 227 227 225 217 210 206 226 225 228 246
245 261 167 196 297 251 264 278 254 281 257 242 255 250 238 237 238 258 250 250 251 246 257 251 243 248 237 226 237 235 220 215 213 224 226 219 224 226
240 243 238 276 271 261 258 268 215 254 260 227 244 239 238 233 243 255 243 247 245 253 248 246 238 239 245 243 227 215 216 219 220 222 225 234 231 239
241 240 254 291 275 273 244 258 241 246 256 244 237 233 238 230 251 244 240 243 243 243 240 247 230 240 223 215 217 225 221 220 226 235 251 262 267 287
289 290 232 270 218 250 252 239 254 249 244 235 235 248 239 252 244 247 236 253 240 237 230 237 253 227 214 219 221 218 223 229 241 254 267 318 313 326
276 258 242 241 259 276 266 253 254 234 233 234 233 233 251 241 245 239 231 252 239 226 247 247 232 217 221 222 220 227 232 245 257 310 311 304 327 363
275 280 266 270 256 254 245 229 237 236 231 228 246 247 241 241 237 229 240 239 259 239 241 234 217 222 222 224 227 239 250 264 314 313 303 323 353 366
264 264 269 253 251 259 244 230 229 232 240 246 242 240 239 231 236 239 236 249 256 235 229 224 218 222 225 227 241 250 270 313 319 317 344 382 369 365
253 259 243 240 249 238 243 241 243 243 244 241 241 237 225 239 233 227 248 268 238 218 222 217 221 225 228 242 249 275 313 313 387 398 356 348 420 389
256 252 249 255 254 248 243 246 244 239 241 241 239 240 230 227 234 248 259 222 218 224 216 220 227 229 240 248 274 305 314 382 382 341 432 419 394 384
259 257 254 255 258 248 238 237 244 246 245 230 229 226 226 233 250 251 244 223 222 224 218 226 229 239 245 269 296 313 334 365 344 332 335 373 364 358
267 267 263 258 253 249 228 246 246 239 230 233 239 243 241 251 264 229 228 221 225 220 227 229 237 244 264 289 307 314 382 345 347 330 336 319 324 330
245 248 255 252 254 251 240 238 237 237 238 241 243 245 253 244 239 257 230 221 220 226 230 237 246 262 287 301 300 375 329 337 328 336 331 321 322 323
246 245 243 242 241 241 241 243 243 244 249 253 251 247 251 253 221 218 216 221 226 230 236 247 263 285 294 303 327 343 341 336 333 321 309 306 303 311
254 255 256 256 256 258 259 239 235 231 230 223 228 261 258 251 250 217 224 226 234 236 249 262 273 291 309 311 365 337 330 326 322 309 297 298 298 292
221 219 217 216 217 218 221 222 221 220 222 224 225 229 242 277 274 266 238 238 238 251 264 266 288 306 296 348 341 326 304 305 317 339 353 371 371 372

GFSNE_2pvu_pres_081.txt.gz
Presure
176 182 183 176 127 172 155 176 120 173 176 146 209 185 201 193 215 216 230 264 247 285 236 224 273 278 286 291 269 263 250 268 277 261 252 250 287 281
117 149 206 139 185 163 167 180 179 191 160 179 191 198 185 205 226 222 251 213 254 234 252 274 262 291 285 325 277 252 249 275 269 254 255 262 286 267
189 185 149 183 182 125 183 197 192 195 199 154 202 207 210 199 243 236 272 263 231 256 224 253 272 284 271 302 299 287 277 273 264 253 268 279 286 251
177 178 141 181 180 182 183 194 190 201 204 204 208 215 217 271 176 228 242 248 267 225 256 255 268 273 267 262 260 286 284 282 276 272 243 240 238 236
179 181 187 186 190 195 199 201 134 178 206 213 223 222 216 273 271 244 264 257 238 244 245 264 244 264 264 253 241 241 237 237 230 227 227 225 225 226
195 180 176 201 158 206 208 206 212 216 220 225 221 250 267 267 246 279 241 254 250 227 242 231 257 266 258 254 246 237 229 222 224 224 220 225 223 216
208 208 209 213 213 195 214 219 225 233 205 158 263 259 265 256 246 254 249 252 226 241 230 256 251 254 258 263 254 250 232 227 220 232 225 218 217 215
217 217 167 223 225 247 252 246 241 287 293 244 230 235 273 276 241 257 222 239 237 234 237 251 245 249 252 246 254 245 244 245 251 250 243 233 221 216
245 248 286 266 256 246 243 271 286 312 265 239 228 271 225 250 239 246 239 240 229 245 249 246 237 251 247 238 242 244 237 246 243 232 219 218 215 216
263 288 264 256 243 243 247 232 297 290 274 276 264 245 225 260 251 238 232 235 233 243 249 240 236 241 255 240 232 239 250 238 219 217 221 226 221 218
275 276 268 260 251 247 240 237 237 279 261 269 255 242 250 250 236 235 231 236 235 254 240 239 229 243 255 249 248 241 240 215 218 221 220 220 226 232
324 283 284 293 267 301 288 277 270 259 280 239 276 259 246 240 229 226 236 232 244 246 239 237 237 247 265 247 230 253 221 218 219 220 224 227 235 248
284 282 294 281 264 272 276 262 275 271 261 258 240 237 234 228 230 230 227 246 245 239 240 236 239 249 268 235 241 222 220 218 222 226 229 242 254 301
298 302 294 282 275 269 274 263 266 262 249 250 241 238 233 228 225 231 240 242 243 241 231 231 235 250 242 247 222 222 215 218 227 230 245 258 304 323
269 270 280 275 278 278 264 260 255 252 248 241 234 226 227 234 248 237 243 243 241 230 229 231 241 262 215 221 221 225 217 227 231 244 256 302 323 329
267 267 266 262 258 258 251 245 249 248 238 234 244 229 230 236 239 243 235 246 228 227 247 242 252 234 224 221 223 218 227 232 244 256 299 325 376 365
261 274 266 269 263 261 254 249 249 244 247 245 239 235 243 239 245 249 228 230 240 239 241 248 248 249 252 221 215 227 231 240 253 287 308 311 370 371
266 266 267 264 262 261 253 255 251 251 250 256 254 225 228 234 246 247 239 237 241 249 249 253 253 216 218 214 226 232 240 252 278 300 311 379 339 341
245 251 250 250 253 255 262 266 265 258 256 254 243 242 241 236 236 241 242 250 248 256 224 225 217 217 215 225 230 241 252 274 294 313 315 361 341 336
252 247 251 254 253 250 248 246 245 246 245 244 242 241 242 242 243 249 234 217 217 259 260 248 287 273 266 234 239 253 272 291 297 304 378 348 330 316
254 258 244 246 245 251 254 255 253 252 251 249 250 251 236 219 220 219 219 224 231 233 231 236 238 232 238 239 251 266 278 298 302 321 357 322 294 308
250 247 245 242 237 235 233 230 226 221 217 217 218 219 221 220 221 226 232 237 233 230 231 229 233 237 243 256 267 271 291 290 311 372 324 312 361 406
234 234 232 229 229 230 228 226 226 225 225 225 225 224 227 228 229 228 227 232 234 259 260 263 252 248 257 268 270 285 292 307 339 338 299 377 323 368

GFSNE_2pvu_pres_084.txt.gz
Presure
216 186 131 156 219 170 178 164 176 165 118 191 181 183 176 185 190 170 200 204 202 219 231 217 228 272 269 253 266 277 273 320 299 279 263 254 269 249
187 191 192 195 199 194 203 206 195 187 181 197 183 184 188 190 189 199 206 207 220 234 270 259 248 265 240 256 264 260 265 311 295 285 272 272 260 258
170 175 178 196 181 173 196 194 188 159 178 179 178 188 172 197 198 209 215 217 213 254 227 242 256 251 253 232 265 270 269 252 251 290 288 254 266 270
169 174 183 180 180 176 178 180 181 182 187 188 197 206 213 214 211 216 228 144 262 230 240 278 258 235 225 245 264 257 271 263 245 239 243 245 240 239
177 182 180 183 181 176 188 197 206 209 209 145 214 207 211 210 224 240 244 169 247 241 238 232 253 238 247 235 263 255 263 256 258 245 236 230 227 224
235 233 226 232 230 219 224 228 209 213 218 174 216 191 223 234 250 242 281 253 253 227 260 262 232 246 243 238 255 246 257 253 255 251 245 236 230 227
219 225 219 224 224 219 217 219 212 213 223 201 232 241 251 261 271 280 276 275 244 243 257 247 241 243 228 241 251 245 250 255 246 252 249 244 243 228
236 235 231 233 240 240 241 239 239 247 251 278 262 286 250 241 234 278 258 260 263 255 242 244 244 230 235 255 242 239 231 250 249 243 249 233 246 244
258 263 176 233 276 172 320 275 303 301 265 259 260 263 293 241 239 249 254 258 251 243 243 234 237 226 237 253 242 235 233 248 275 240 250 249 250 239
307 300 287 282 293 306 304 294 267 289 270 301 272 234 277 258 261 267 248 258 248 241 232 237 232 236 228 253 242 238 235 252 267 247 236 249 239 230
311 310 310 305 286 295 276 279 304 270 297 292 289 270 287 270 253 255 254 261 245 245 231 229 237 227 239 244 243 230 235 243 266 240 250 225 219 225
267 307 326 265 283 287 326 244 279 283 271 298 287 274 266 248 250 243 258 249 235 233 229 230 227 231 242 248 236 226 237 244 266 235 219 224 225 218
312 303 310 331 306 300 286 277 269 261 271 252 266 256 268 279 267 241 226 236 236 233 231 228 229 242 244 235 228 229 246 248 263 215 223 222 222 219
290 283 290 282 287 289 299 291 280 265 271 268 269 270 257 258 251 244 235 237 232 229 231 227 242 234 245 234 228 243 241 253 235 223 226 223 219 222
293 279 277 265 260 271 270 270 269 271 279 271 262 254 250 240 235 238 237 231 238 229 242 229 250 236 246 243 240 242 251 250 258 276 222 216 222 228
268 268 268 277 267 269 266 263 258 259 252 251 246 258 244 238 235 232 235 245 242 236 229 238 231 241 234 238 246 257 254 249 217 219 228 227 229 242
257 268 266 264 264 261 262 262 254 258 260 257 250 248 243 249 239 242 234 244 248 235 242 237 231 234 238 246 244 224 263 265 285 274 266 236 245 253
263 262 255 262 263 259 261 260 260 259 258 267 258 251 258 250 250 250 247 250 240 236 238 237 236 242 233 218 216 225 232 233 239 247 237 241 253 279
262 260 250 250 249 240 248 248 242 248 250 249 248 242 243 250 250 244 237 235 235 237 240 238 226 223 219 220 236 238 235 229 227 239 237 248 272 280
264 259 254 252 246 243 243 246 251 248 247 249 249 254 252 251 249 249 248 247 240 217 215 217 218 219 227 233 228 229 229 244 262 256 250 269 270 295
256 251 253 258 257 254 255 248 245 241 239 238 238 235 230 226 224 222 219 219 221 224 224 224 227 231 230 230 237 259 267 266 267 262 267 267 292 297
261 259 251 246 245 240 237 230 228 228 229 229 230 230 229 229 228 228 227 226 226 228 234 235 230 236 245 252 261 270 267 269 270 269 268 287 301 300
241 241 243 248 241 240 240 239 238 233 230 233 235 235 239 236 237 240 240 260 261 255 258 261 260 260 258 273 271 263 265 273 264 267 290 309 309 317

GFSNE_2pvu_pres_087.txt.gz
Presure
177 130 193 206 186 152 163 202 161 169 169 169 198 170 206 172 173 175 186 176 196 212 207 213 216 228 245 269 245 265 263 258 252 269 267 255 253 257
215 172 204 201 207 211 209 189 166 193 169 190 180 185 172 179 187 166 209 216 223 206 209 215 228 254 199 256 240 255 255 255 247 267 269 254 263 285
165 200 213 190 169 193 188 180 181 180 184 185 187 227 219 215 223 213 167 234 218 214 220 231 246 255 251 262 239 260 249 249 251 258 268 258 244 238
170 226 220 227 178 204 203 182 232 246 237 237 234 219 217 221 215 219 139 214 223 235 233 251 258 260 241 243 257 255 252 238 259 253 257 261 258 241
171 174 172 182 187 206 199 202 207 218 222 218 221 165 191 224 227 231 233 240 240 251 249 265 233 262 272 261 250 229 243 232 232 257 245 251 248 257
187 205 193 201 205 210 215 221 225 232 231 231 233 235 236 254 248 248 252 262 263 266 258 265 236 247 232 237 243 239 242 225 239 245 244 241 253 241
199 203 207 214 221 225 234 237 236 242 242 246 259 264 266 258 266 265 250 272 257 286 290 287 249 248 248 253 237 237 239 231 239 246 241 240 246 255
247 229 231 235 237 240 243 244 243 282 288 287 323 335 325 273 291 252 313 263 295 242 278 238 259 262 250 246 243 229 231 236 247 245 242 238 251 264
237 243 244 244 260 276 289 315 313 303 302 299 297 298 315 314 281 243 259 266 285 278 257 246 256 251 253 241 237 234 230 228 242 248 242 231 232 262
298 319 298 289 285 308 299 288 285 266 267 283 243 262 260 251 259 262 262 254 262 271 266 252 250 256 240 234 235 228 229 228 245 248 241 228 236 254
246 261 320 346 261 283 306 301 279 273 267 277 243 278 284 287 284 293 292 262 271 259 244 247 252 244 240 235 228 230 227 231 244 245 231 229 233 248
303 309 321 296 326 317 327 324 324 307 307 280 267 268 272 266 262 273 276 244 260 249 239 261 248 231 229 229 230 228 231 239 232 243 239 229 242 252
297 298 312 310 300 295 299 329 317 306 299 282 277 269 274 255 261 257 260 251 249 263 256 234 233 237 237 237 235 231 227 243 237 235 235 241 249 257
280 283 282 282 298 283 283 277 277 277 294 284 278 275 261 267 261 263 269 258 260 245 240 244 239 235 235 238 239 243 227 234 236 239 239 248 248 260
280 277 270 274 271 269 268 278 270 264 262 270 265 265 263 268 266 256 258 261 251 245 243 237 241 234 220 229 241 245 242 237 236 237 243 247 262 248
260 270 271 266 263 267 270 266 266 260 260 262 257 253 261 255 247 244 243 245 244 240 238 231 229 228 230 234 250 246 238 236 239 243 245 220 220 227
254 260 254 255 252 252 258 256 269 267 262 260 260 257 255 256 259 252 253 248 247 243 240 238 241 243 246 250 250 249 246 248 239 227 217 220 234 236
263 272 275 269 261 264 261 254 253 249 243 242 240 242 241 241 242 243 250 259 262 259 262 257 255 247 238 237 240 244 245 220 218 219 224 234 234 230
276 273 270 261 260 259 257 254 248 249 241 242 249 242 248 249 245 239 249 252 249 243 239 238 239 244 245 246 220 217 224 222 223 229 235 234 247 260
264 260 259 257 258 262 258 254 253 253 255 249 252 251 250 248 241 244 242 241 241 237 235 230 224 222 218 219 221 222 229 228 236 234 243 261 258 263
262 259 260 256 253 254 253 253 257 257 249 247 244 240 237 234 230 237 239 238 235 232 233 232 231 229 229 229 231 235 239 227 242 256 254 257 263 270
261 261 265 267 266 264 262 250 240 234 239 241 239 238 237 235 235 231 232 235 251 253 255 254 252 248 245 246 250 257 261 266 272 272 264 266 288 266
246 247 247 241 241 241 246 244 241 234 239 243 237 242 260 260 258 259 258 257 260 265 268 273 274 267 267 266 263 262 265 269 267 282 280 310 272 265

GFSNE_2pvu_pres_090.txt.gz
Presure
179 182 105 172 170 176 159 178 184 173 170 200 217 176 205 187 182 170 194 192 202 213 214 206 217 220 227 235 143 241 240 269 258 258 256 255 275 278
180 178 157 180 169 172 180 181 195 212 185 170 187 173 172 179 195 195 200 209 219 224 222 226 231 213 190 177 250 252 249 246 255 253 229 247 263 269
202 169 172 168 206 176 187 208 195 200 199 173 154 184 154 189 193 204 195 222 226 232 227 241 248 245 241 287 278 243 264 264 252 249 245 243 265 256
166 190 174 188 185 185 203 208 189 163 175 196 185 199 206 233 214 219 227 230 241 260 259 261 253 245 252 265 275 235 262 236 249 247 240 241 239 251
200 200 187 208 213 166 224 188 153 224 205 203 218 213 251 222 230 245 239 256 260 263 259 276 256 292 275 234 259 270 229 243 245 240 239 236 238 252
196 210 173 211 211 173 181 211 219 229 243 212 224 231 245 249 251 262 295 280 295 277 280 294 297 277 290 260 270 232 250 256 251 233 238 228 228 254
205 194 232 228 203 228 226 212 217 215 226 249 260 249 262 287 289 294 300 295 267 314 301 289 271 275 275 240 259 257 246 247 251 232 232 228 228 248
222 185 206 222 219 168 208 235 240 265 262 278 296 298 275 298 266 277 278 277 275 269 295 284 282 263 283 276 258 253 243 247 239 236 230 225 226 239
215 224 220 231 229 256 303 295 294 290 278 244 267 295 299 277 288 274 242 300 278 278 259 258 290 255 263 270 261 250 249 250 237 224 231 227 222 232
239 252 304 313 294 288 294 276 264 263 293 327 323 339 316 274 292 267 280 252 281 277 287 280 276 259 263 262 254 246 238 238 236 233 232 227 227 230
311 294 285 275 276 256 262 267 332 313 323 329 319 336 309 305 312 303 272 267 277 261 283 281 276 262 259 260 227 233 244 238 233 227 229 222 220 231
264 318 314 275 297 278 283 303 310 310 307 330 311 304 292 285 307 296 289 273 250 260 258 275 264 240 263 254 231 253 240 230 238 236 237 221 229 223
308 310 298 290 298 293 282 287 293 297 278 291 297 294 293 290 288 285 268 267 272 258 261 271 257 254 241 271 252 239 238 235 226 230 238 237 234 224
300 300 290 293 282 285 284 278 277 283 274 277 271 264 275 282 276 278 274 266 271 259 263 271 265 258 256 252 247 241 240 228 235 220 223 237 239 230
289 286 281 282 272 274 275 276 273 270 274 270 276 266 264 267 265 264 262 256 254 260 254 246 248 254 245 247 233 236 232 229 227 229 234 243 246 241
271 272 278 278 269 270 264 265 261 259 260 266 264 263 260 257 263 261 254 254 260 255 252 246 241 237 245 243 239 237 236 236 236 236 244 243 246 247
262 254 278 275 268 260 260 259 257 259 257 260 257 264 263 260 259 256 259 255 256 251 252 255 258 249 245 244 242 246 248 244 242 248 245 240 240 243
256 259 289 278 273 265 269 273 273 264 268 262 256 253 250 248 240 244 249 247 243 248 249 248 249 245 242 241 243 241 243 243 235 236 241 245 230 220
270 263 289 274 270 276 276 271 266 263 262 263 260 253 247 254 251 243 250 252 252 249 250 248 246 245 243 245 247 248 249 248 219 220 219 217 226 229
269 265 270 275 274 270 263 262 261 262 256 262 257 252 250 259 260 256 250 241 235 234 234 233 236 238 235 233 233 234 231 227 229 229 229 229 231 234
271 265 260 264 260 258 260 259 258 260 258 256 256 259 260 244 235 244 240 237 240 237 236 238 247 251 256 251 250 251 251 250 250 244 245 244 244 246
269 262 261 258 253 261 264 259 261 269 271 266 251 243 241 244 235 239 241 237 242 257 259 257 256 258 263 267 269 270 273 274 271 269 269 268 264 262
265 260 258 256 254 253 249 247 242 242 242 242 241 239 239 240 239 244 258 256 253 252 263 270 278 300 298 316 312 331 429 351 321 319 311 295 282 280

GFSNE_2pvu_pres_093.txt.gz
Presure
205 151 165 186 190 178 199 173 166 187 183 171 194 208 177 205 184 186 204 190 218 200 213 208 212 235 218 236 242 251 249 248 239 242 290 270 253 257
165 172 188 175 184 178 164 204 177 190 166 200 187 213 193 195 209 206 192 154 219 202 210 216 220 227 240 254 260 271 251 248 257 260 251 254 230 258
171 154 193 179 176 194 160 180 191 184 208 210 206 193 213 181 212 212 211 254 227 215 223 236 248 251 267 270 280 262 288 268 269 249 250 247 237 255
176 180 174 169 146 210 184 194 183 201 200 201 221 223 193 220 222 197 234 226 232 257 251 242 270 282 277 263 296 298 278 282 239 259 244 256 248 248
195 150 157 175 227 199 207 194 211 197 225 212 202 213 221 221 231 234 247 262 278 277 292 286 277 234 247 295 258 281 287 243 251 257 249 234 244 238
169 176 209 198 192 185 209 197 217 213 225 186 222 238 222 246 250 296 278 298 303 265 249 237 287 247 303 304 291 289 247 261 269 243 246 245 237 236
194 192 178 218 210 203 211 213 223 236 219 236 249 256 251 367 353 341 336 266 250 263 282 291 292 255 243 265 273 303 281 275 264 244 243 242 232 238
201 202 208 193 212 207 235 221 229 240 263 266 256 290 293 276 336 251 346 345 318 276 284 265 264 277 278 284 308 268 285 261 263 251 241 242 235 231
216 211 203 203 228 239 200 254 275 275 214 286 231 281 328 327 341 332 317 317 327 291 276 279 266 273 262 245 262 271 270 263 254 250 241 242 237 227
216 232 176 274 236 299 299 266 289 271 274 267 298 314 327 330 331 327 330 312 301 309 274 257 277 275 256 276 272 275 260 263 252 246 234 234 238 222
283 289 284 276 278 273 282 241 275 305 266 305 309 294 304 325 317 311 319 301 297 293 302 272 258 273 264 266 267 257 260 251 248 247 220 228 238 230
286 299 279 282 277 296 266 273 303 273 287 293 293 293 292 306 312 299 299 302 296 299 281 272 267 278 250 261 256 254 240 250 241 247 221 227 237 226
216 300 275 319 323 266 306 297 296 284 290 291 283 291 279 278 282 292 282 280 282 285 281 269 265 269 257 245 254 249 246 254 226 233 229 227 232 227
287 309 292 315 303 308 297 294 291 278 283 279 274 275 276 281 272 271 265 269 268 269 270 262 257 262 253 251 256 255 252 264 260 262 232 237 243 232
311 302 305 299 293 295 285 283 282 283 275 269 271 262 263 275 274 271 265 265 265 262 266 265 266 262 260 255 255 257 252 252 242 240 236 233 235 231
296 282 286 293 287 267 263 264 276 277 271 260 261 258 255 257 266 263 264 263 261 263 261 256 253 255 256 255 252 249 240 238 238 245 240 235 233 236
288 282 278 267 267 267 259 254 284 275 268 265 266 264 266 263 262 262 261 263 256 254 249 243 248 243 242 241 240 244 254 256 249 246 242 240 241 246
270 270 264 260 254 253 249 257 282 278 271 264 271 274 270 269 265 258 254 252 248 248 245 242 250 241 248 254 247 238 238 241 245 246 245 246 246 244
259 255 250 249 252 272 267 291 284 268 266 275 269 265 258 259 265 263 262 257 255 251 261 262 259 254 243 237 236 233 229 229 231 236 235 232 232 235
249 251 247 250 256 264 265 267 265 269 272 265 261 260 261 260 256 267 263 256 260 260 243 244 243 234 239 240 237 240 243 245 248 248 246 242 243 243
244 246 245 257 262 267 267 262 260 261 261 255 258 258 258 264 266 263 263 262 245 238 242 237 242 237 240 248 257 260 260 262 262 262 264 264 262 259
243 245 246 251 265 272 266 259 255 252 251 252 255 259 266 272 273 249 242 241 239 238 239 238 245 255 254 253 257 268 288 320 333 320 316 319 318 312
242 242 243 262 273 268 261 258 258 250 249 251 247 245 246 247 248 248 245 244 241 245 249 251 260 251 250 266 262 295 287 289 290 291 296 299 302 286

GFSNE_2pvu_pres_096.txt.gz
Presure
166 185 187 173 187 168 194 194 216 193 198 216 181 168 191 184 182 167 210 190 215 198 220 150 228 254 241 227 252 242 245 250 259 274 256 251 280 270
173 157 185 199 182 190 167 177 179 178 159 199 186 195 182 185 204 199 205 211 198 217 216 221 240 256 245 257 274 266 276 299 267 260 296 269 261 256
179 140 172 178 169 162 155 179 201 169 186 201 187 190 198 193 197 216 212 207 224 198 234 262 253 244 285 247 250 281 280 264 272 268 275 271 258 262
197 171 183 194 157 186 191 189 172 193 181 197 204 231 222 213 213 195 236 228 251 269 290 258 287 306 274 291 288 247 259 234 281 272 290 268 284 253
186 171 189 161 171 189 168 184 193 195 166 185 224 200 213 213 220 225 235 279 284 264 263 302 326 267 303 234 248 252 256 297 255 267 284 259 240 223
185 195 164 188 184 172 193 189 210 193 215 205 215 215 218 220 235 263 222 244 254 316 355 259 316 277 284 272 286 257 287 276 224 267 281 241 255 245
194 167 203 198 199 186 198 192 208 205 199 221 239 218 225 267 296 238 289 296 372 362 341 331 326 316 296 267 283 262 278 286 255 262 294 259 254 243
203 182 195 210 198 215 200 205 231 225 225 227 223 273 301 302 266 310 265 343 347 342 349 310 310 301 288 277 268 251 256 264 256 291 280 266 250 240
201 197 221 223 231 224 207 198 223 195 228 211 279 289 305 265 298 332 318 326 325 324 326 322 314 300 281 263 263 257 284 253 261 240 276 261 247 240
224 228 216 199 219 209 209 201 219 246 288 308 284 239 281 296 313 313 314 307 315 328 312 305 290 278 280 272 249 256 263 288 272 267 267 255 249 239
217 223 223 209 224 207 230 272 289 298 279 281 269 313 306 296 293 296 303 291 312 304 300 283 290 286 276 265 257 256 280 260 271 273 262 257 249 232
233 228 245 241 249 309 293 306 277 291 267 321 266 303 308 303 295 289 285 286 294 296 295 296 290 294 293 274 264 254 276 241 253 269 243 260 244 227
305 284 263 274 290 262 305 294 266 259 288 305 310 302 291 294 281 281 283 276 276 282 276 282 288 280 274 270 261 262 266 254 265 250 249 228 222 240
288 270 264 288 297 265 265 275 295 305 294 300 294 289 281 286 277 277 267 276 270 266 262 274 271 274 276 273 264 262 255 253 252 251 243 241 233 234
270 291 258 282 279 261 317 312 305 293 286 293 273 266 265 268 276 269 261 262 257 264 267 265 260 261 271 275 262 261 259 259 258 256 253 250 251 246
257 272 288 280 276 310 305 296 284 283 286 266 259 257 260 263 271 260 262 261 262 266 264 264 260 257 259 259 256 255 258 256 251 248 243 244 255 251
271 276 281 289 299 295 289 283 280 271 266 259 261 252 250 272 267 265 267 265 267 261 262 253 257 250 249 244 246 246 245 243 244 248 248 248 248 246
260 263 284 292 282 282 276 268 266 260 259 252 252 260 269 272 268 262 273 271 263 265 258 255 247 249 246 249 245 246 247 244 249 250 246 241 238 239
263 269 292 278 261 275 261 260 254 252 245 253 266 283 277 260 260 272 268 261 259 258 262 263 261 258 250 261 259 257 243 249 248 236 230 234 236 240
262 288 271 256 256 262 259 245 243 246 242 257 264 274 264 260 261 265 254 252 255 260 256 258 262 249 263 251 237 245 232 237 241 238 238 241 247 254
289 269 255 258 261 254 254 239 238 239 245 253 263 265 259 258 261 255 254 252 249 254 259 262 262 256 242 242 238 243 238 240 245 255 257 252 259 270
261 260 252 262 255 252 246 240 236 238 240 258 266 262 257 252 252 253 252 253 252 260 255 243 242 238 238 238 238 242 247 258 259 255 266 301 303 292
255 251 250 251 253 243 244 241 238 237 239 257 264 266 256 257 251 242 242 246 242 241 243 243 241 239 242 243 253 259 258 253 255 270 269 291 282 284

GFSNE_2pvu_pres_099.txt.gz
Presure
172 167 155 172 183 183 179 193 198 211 153 141 187 192 179 201 171 209 183 171 192 198 183 193 207 184 238 293 269 261 265 246 279 281 265 286 268 280
182 169 179 175 148 165 179 150 177 160 184 184 169 177 218 165 162 199 176 201 170 188 197 227 237 231 291 236 326 287 255 243 252 299 258 253 242 264
181 181 194 162 169 192 191 172 175 129 161 187 164 197 181 191 198 192 208 200 188 198 206 242 242 266 309 280 282 265 282 287 269 285 257 266 255 229
185 175 158 177 198 177 166 168 213 156 170 176 191 170 194 185 193 179 188 210 223 248 228 255 258 282 322 263 331 288 307 292 299 262 244 245 253 271
175 155 175 162 150 201 199 191 188 183 198 190 186 199 185 177 199 196 199 216 221 229 235 292 225 331 364 356 337 336 312 307 283 303 259 241 253 260
172 172 184 169 170 179 185 191 200 193 194 209 196 203 211 190 193 212 213 228 234 245 283 206 316 357 365 337 345 317 294 279 271 260 267 278 283 236
173 178 192 194 187 184 183 183 195 217 192 213 194 196 205 188 223 226 226 214 254 285 278 269 339 344 355 337 321 309 288 283 274 267 258 285 257 279
199 178 194 183 219 222 165 192 193 168 198 198 199 206 224 214 228 252 245 274 296 323 328 329 332 323 327 332 312 300 286 274 270 258 258 274 264 233
198 209 194 193 199 221 207 208 225 200 217 216 225 230 219 235 228 245 278 303 300 317 320 314 332 341 322 300 301 302 284 270 267 260 261 257 265 266
217 200 213 211 234 212 214 214 225 225 214 210 233 222 223 254 263 311 306 274 318 309 308 313 320 327 306 298 289 282 267 275 261 254 273 264 255 258
224 225 216 231 206 223 220 231 232 220 220 229 228 260 284 299 303 278 279 317 307 297 297 301 309 311 292 296 289 278 271 268 254 259 267 275 285 242
239 239 234 220 224 214 212 234 222 233 201 241 285 310 307 282 327 268 309 299 297 287 291 287 288 292 302 297 283 281 275 268 255 256 274 279 268 253
234 232 234 219 216 226 224 238 254 282 282 297 284 292 283 321 280 300 296 286 287 282 277 275 281 276 279 295 285 285 282 257 259 257 265 240 259 257
244 239 215 212 256 296 289 287 286 293 269 281 278 323 297 309 301 294 280 277 272 273 277 264 267 266 273 269 271 277 274 269 257 255 261 253 246 264
302 278 290 288 293 295 267 289 261 277 276 284 283 286 304 292 297 278 269 261 270 265 274 263 265 269 266 261 265 259 268 263 256 256 256 251 245 261
290 265 281 272 271 271 275 266 276 262 282 311 302 300 292 286 277 265 261 259 252 259 270 270 267 267 266 261 261 258 256 252 254 260 257 256 256 248
291 283 279 277 272 263 268 270 266 269 270 294 289 286 278 271 265 260 259 252 250 270 267 264 267 267 262 254 255 260 254 249 249 253 252 253 253 252
266 273 267 260 262 253 259 266 266 258 300 283 270 269 263 258 258 250 248 259 270 268 263 267 270 263 263 259 260 248 250 240 248 245 241 243 241 239
261 264 262 253 253 254 257 257 259 273 287 271 262 256 257 253 246 245 256 276 270 261 258 269 261 257 256 258 257 261 252 255 248 257 259 254 247 253
274 261 252 250 253 251 252 253 260 271 275 265 253 254 249 242 242 246 256 272 262 264 262 265 257 254 254 254 254 256 254 247 258 251 233 242 235 232
265 262 264 263 255 254 256 259 263 276 267 251 253 252 244 238 238 236 242 260 269 253 252 253 250 249 248 248 259 267 264 259 242 240 240 234 236 239
272 266 260 260 259 264 258 269 267 270 259 252 250 250 243 238 234 239 240 270 263 253 248 246 248 247 243 247 238 239 242 241 241 242 241 236 238 247
267 267 263 264 259 266 261 263 270 256 249 249 251 246 244 238 235 235 249 266 260 256 255 246 240 242 242 243 243 240 240 242 243 242 247 254 254 253

GFSNE_2pvu_pres_102.txt.gz
Presure
170 198 179 175 168 137 173 184 152 196 197 160 155 186 144 208 181 199 186 186 183 180 189 199 186 207 194 205 248 249 346 261 227 291 288 304 272 324
182 179 197 154 186 174 198 143 175 184 167 193 196 187 201 172 216 140 163 201 197 210 175 185 203 192 204 213 226 270 299 299 312 314 337 311 304 260
178 172 178 202 171 177 189 175 189 182 160 195 177 166 209 228 189 202 204 172 194 166 169 201 197 214 211 246 249 350 287 397 372 351 317 313 282 269
174 175 207 216 193 186 198 193 196 201 180 192 167 184 189 198 176 194 186 174 190 184 188 194 218 213 216 233 289 299 233 391 345 333 306 308 290 283
200 205 197 192 197 188 196 173 186 203 191 199 181 188 177 173 164 185 175 198 202 201 201 210 227 246 284 312 258 354 362 369 356 326 307 301 313 274
167 178 193 193 177 174 190 198 197 181 157 167 182 179 187 202 194 208 208 202 203 207 216 227 235 237 321 271 347 345 360 354 330 310 296 300 282 296
155 189 189 179 194 194 173 171 173 184 192 191 189 162 195 208 202 194 200 214 205 220 208 235 288 338 311 272 344 349 340 337 317 303 307 276 290 269
206 203 175 182 201 194 195 204 206 194 193 183 193 194 214 193 202 213 223 235 233 216 242 299 314 307 323 327 340 345 341 301 311 297 285 271 268 270
191 199 198 204 188 194 195 193 195 194 187 197 204 201 201 217 214 221 212 245 253 253 306 314 332 281 309 318 343 324 316 304 301 289 281 282 269 259
197 202 218 187 199 189 181 182 191 205 194 200 201 209 208 210 229 256 252 237 260 312 298 327 301 300 302 302 314 308 312 310 290 271 269 294 268 254
206 203 211 206 202 222 207 199 196 205 218 219 226 247 235 236 277 236 290 321 328 297 284 312 302 291 295 290 295 306 299 293 286 275 262 264 261 256
201 210 186 223 192 211 203 210 215 214 232 231 225 283 234 236 229 267 324 311 290 327 279 301 290 289 285 278 278 285 305 295 289 284 277 275 248 260
228 225 217 234 216 223 218 205 217 230 236 232 234 214 253 234 293 297 303 261 330 300 300 290 281 273 280 267 271 277 286 302 296 281 277 265 256 257
233 236 241 239 236 239 237 256 250 245 259 265 275 274 285 290 296 288 239 327 312 301 294 280 269 266 273 266 269 274 273 276 284 279 267 258 257 255
316 306 282 272 289 280 296 287 270 299 297 274 298 288 283 259 279 294 307 309 292 294 279 265 265 255 255 270 272 274 268 267 267 268 272 273 263 255
339 310 294 281 280 277 277 266 287 279 274 281 276 261 274 278 284 280 292 291 285 280 266 260 257 253 253 265 273 271 267 265 267 259 266 262 254 254
312 307 295 290 275 275 279 285 279 283 284 273 266 267 270 268 272 263 286 278 266 263 258 253 249 252 261 272 270 273 262 258 252 261 266 259 255 258
305 307 290 280 274 273 268 267 270 265 268 256 260 261 256 264 258 286 273 263 260 253 251 245 255 269 272 261 265 271 261 263 259 252 247 250 242 242
304 297 277 276 282 273 263 269 266 266 259 260 257 254 255 254 256 275 267 249 252 247 242 244 261 272 266 261 264 262 260 258 258 255 259 261 250 249
290 282 288 278 281 270 265 253 250 252 258 256 252 252 250 251 255 269 262 246 248 242 240 244 250 267 263 261 260 260 252 249 249 251 249 256 259 249
291 275 278 274 292 270 266 262 263 258 254 249 246 249 247 252 263 263 252 241 247 241 236 237 230 255 262 255 256 256 252 245 242 251 256 271 259 260
283 280 277 285 277 275 272 262 260 256 252 253 251 253 258 258 264 258 249 244 243 241 235 232 235 249 257 258 248 245 248 247 239 241 238 238 239 240
276 270 278 277 264 265 273 262 259 252 249 251 258 257 258 255 268 250 245 244 240 242 234 237 234 242 261 257 254 249 242 241 247 249 246 246 245 247

GFSNE_2pvu_pres_105.txt.gz
Presure
188 188 182 185 197 184 172 186 179 198 187 164 165 168 161 187 152 190 195 177 213 199 189 206 165 170 152 182 200 200 235 242 241 308 240 351 344 316
169 186 206 172 202 189 167 185 184 190 171 200 184 192 137 195 182 213 206 216 211 169 204 154 165 180 195 191 201 204 231 242 298 369 329 394 358 345
184 192 180 206 191 190 188 171 174 190 186 212 207 186 160 209 167 219 193 180 178 180 179 192 204 185 191 192 207 216 229 339 316 335 385 405 356 335
191 192 200 183 181 176 190 178 189 191 188 219 211 207 197 224 196 202 176 155 226 181 194 191 192 209 190 214 208 247 239 288 345 370 380 385 337 314
189 181 179 196 190 189 184 194 173 198 180 188 171 197 192 202 157 192 196 216 203 193 171 192 193 210 192 222 261 269 349 350 280 397 358 339 321 313
204 200 196 184 183 215 197 175 180 187 173 188 203 203 192 175 214 199 193 219 194 215 176 184 209 201 222 227 290 245 327 304 363 374 356 351 329 303
183 204 181 205 168 193 185 175 234 162 196 201 195 182 199 183 190 187 210 211 192 173 203 198 210 228 221 245 331 300 333 340 368 342 338 320 314 295
211 175 194 187 182 204 178 216 196 200 205 221 179 219 195 216 198 195 193 214 197 192 214 206 217 236 279 335 304 329 318 339 329 332 315 308 288 307
201 197 200 197 192 208 212 223 188 178 206 196 183 203 188 211 187 196 181 209 212 195 222 202 215 239 314 339 311 320 313 313 316 311 314 313 293 281
209 213 191 202 188 199 194 188 192 183 177 188 177 186 205 197 197 202 216 192 211 205 229 228 239 285 326 289 305 303 301 302 308 316 309 287 284 278
186 194 194 182 205 183 211 202 210 202 194 206 222 206 198 214 198 197 205 203 231 223 227 281 275 305 300 280 305 291 291 291 301 297 310 280 265 270
191 192 206 206 213 209 210 195 194 205 198 190 192 190 193 197 207 223 219 203 237 268 285 281 294 292 318 311 294 284 277 272 286 310 300 290 286 270
259 257 223 231 236 229 247 254 262 247 243 256 225 227 241 263 276 274 277 318 286 276 295 292 297 320 308 300 289 279 272 266 275 291 303 292 291 263
291 303 238 329 265 284 247 303 285 315 271 264 277 298 286 295 277 303 300 290 266 287 285 291 302 305 293 290 273 273 267 263 266 271 281 299 283 281
241 234 230 239 266 309 256 245 250 242 312 294 304 279 284 287 282 294 280 269 273 276 282 278 302 290 289 273 263 263 252 267 273 271 266 277 275 281
340 323 314 311 308 298 309 305 295 302 291 303 278 284 277 278 266 274 265 266 268 273 271 277 289 282 277 264 259 254 247 260 273 268 266 265 266 272
314 323 308 306 309 295 304 295 302 284 274 274 277 279 274 263 267 266 263 260 266 261 263 286 275 267 263 255 251 247 250 258 268 267 266 260 265 261
330 314 311 304 313 307 306 294 296 278 269 266 276 268 272 266 270 261 257 250 259 257 253 273 266 256 252 251 245 250 263 272 261 274 262 259 252 254
321 321 314 304 314 304 312 294 282 280 267 266 259 271 257 265 259 252 247 251 251 252 253 262 258 246 247 240 247 244 267 265 258 265 262 262 258 253
332 331 315 335 306 297 293 273 274 278 270 270 256 258 259 254 251 248 247 247 249 244 249 260 254 242 239 238 240 244 261 259 257 262 260 257 251 252
343 333 326 314 317 304 294 287 283 279 270 267 261 252 261 251 239 250 246 243 241 240 247 259 250 240 239 236 235 237 232 255 249 253 255 253 248 249
352 347 339 315 294 291 284 280 278 267 275 259 263 254 249 240 248 248 243 239 240 245 254 259 249 240 237 237 232 234 230 240 255 251 251 251 247 247
334 337 307 294 279 279 285 269 266 263 271 276 254 258 257 255 248 242 239 246 249 251 254 256 248 242 237 237 236 234 235 233 258 252 249 252 254 247

GFSNE_2pvu_pres_108.txt.gz
Presure
179 172 171 170 199 186 189 158 183 179 198 182 197 161 184 193 199 164 187 181 179 177 192 153 171 186 212 222 177 187 202 160 190 211 218 222 265 389
170 182 188 182 170 199 192 177 181 187 170 175 176 187 188 186 208 203 180 186 188 177 216 183 177 210 189 211 168 154 167 208 143 219 197 223 377 376
170 177 191 181 184 191 181 189 189 171 191 182 195 180 181 200 192 179 194 193 171 196 169 167 225 217 188 185 207 176 173 207 202 215 223 269 353 374
202 193 189 180 194 200 179 177 171 171 191 204 176 207 178 189 171 170 191 183 190 207 202 210 192 195 151 179 179 197 206 210 213 223 227 238 400 391
171 198 193 212 179 193 178 169 182 193 198 221 181 185 185 176 191 196 194 194 187 184 200 208 195 179 190 206 193 197 192 209 212 214 227 356 394 378
183 187 200 197 211 205 186 177 183 192 199 182 194 195 199 159 202 195 197 187 198 200 180 190 202 209 170 196 185 214 200 215 205 222 341 372 369 384
183 181 201 195 197 203 213 200 204 194 197 194 189 180 206 214 184 192 179 205 203 215 197 206 202 193 200 195 220 202 217 218 292 320 277 348 355 356
168 190 191 193 188 129 188 193 193 204 205 188 179 189 178 195 211 194 188 216 199 199 186 195 190 198 214 205 208 215 219 242 300 322 328 328 344 331
196 190 210 204 211 214 191 210 195 188 181 216 187 204 183 212 219 179 184 210 207 188 210 199 212 216 210 223 210 222 234 303 308 316 315 319 326 322
190 190 183 209 196 189 185 186 187 198 183 225 194 213 185 221 195 199 210 203 188 203 211 216 216 220 241 231 248 296 292 324 317 305 302 313 312 318
214 215 229 222 221 221 232 217 207 206 221 201 204 207 195 206 188 191 203 185 203 201 199 205 253 260 269 313 294 296 281 317 309 295 295 284 301 311
233 262 197 193 205 281 267 264 234 231 220 227 220 206 209 221 211 254 283 283 252 244 268 303 267 307 304 313 289 281 302 316 294 276 282 278 306 297
226 293 293 240 236 227 247 246 239 239 282 271 320 266 262 281 254 264 282 215 256 281 223 227 304 297 290 286 275 291 284 303 285 271 276 270 306 297
361 329 252 240 251 250 256 223 301 290 212 232 252 249 247 233 219 224 217 225 282 302 230 296 286 289 280 274 281 279 300 284 278 273 262 267 278 296
386 387 377 364 360 339 317 241 235 238 238 228 239 266 228 228 290 228 284 286 294 284 284 285 279 277 267 270 273 289 276 282 265 268 258 264 269 276
396 384 370 356 365 350 325 312 300 311 299 297 292 279 291 301 289 293 291 293 278 276 277 271 268 266 266 272 271 279 272 267 255 254 244 259 264 264
389 386 366 354 349 334 330 312 311 333 313 294 278 287 262 270 281 291 285 263 268 265 262 263 260 256 261 258 276 267 267 257 251 249 243 250 264 262
392 369 367 351 336 333 316 307 304 305 300 284 292 282 263 270 283 279 269 265 261 264 253 261 253 250 252 249 260 258 252 249 246 244 240 248 259 264
384 372 361 345 320 325 315 315 310 307 287 288 288 273 273 269 268 264 259 272 262 253 262 252 246 248 246 248 260 254 243 245 244 239 244 262 255 268
368 371 346 334 330 323 317 315 307 298 302 307 286 268 267 268 272 258 273 268 265 259 250 247 240 244 242 242 255 257 241 242 237 239 258 260 255 255
385 373 345 330 328 322 322 315 304 302 295 282 270 262 271 269 265 262 263 260 257 252 246 241 239 237 240 240 251 259 239 240 234 235 239 257 253 253
379 363 349 343 335 332 321 310 312 298 286 288 278 274 277 260 270 261 255 254 252 250 242 240 240 239 238 236 243 256 242 237 232 230 230 232 234 254
363 350 350 345 337 324 311 315 294 291 291 280 269 270 256 268 270 253 253 242 252 247 236 240 237 239 238 237 247 258 250 237 236 232 228 230 230 241

GFSNE_2pvu_pres_111.txt.gz
Presure
209 191 164 205 220 170 205 187 202 180 187 173 192 178 197 154 167 163 205 158 191 171 153 167 204 191 194 175 193 210 221 185 210 186 203 177 175 215
193 198 156 149 143 192 167 166 198 176 174 183 177 182 179 182 193 192 214 195 193 187 203 186 191 183 205 194 206 170 189 213 205 186 188 185 216 190
181 169 187 167 188 191 180 188 169 168 180 166 188 169 191 184 193 178 194 198 202 184 192 187 189 176 191 207 221 183 190 212 218 205 189 215 216 229
171 169 172 201 192 171 179 162 189 192 189 183 161 198 174 182 194 194 181 168 193 179 203 210 196 186 167 221 225 179 191 192 179 200 216 175 228 230
161 193 192 189 192 192 206 198 190 190 203 185 217 216 204 206 204 186 207 201 204 198 210 190 204 181 207 219 196 195 189 210 214 202 209 208 241 332
187 198 194 192 194 203 188 187 206 187 186 198 195 187 204 212 192 206 174 189 195 182 186 185 196 208 214 207 196 186 204 214 206 223 224 241 282 297
193 191 197 207 203 188 195 178 200 198 204 217 222 214 193 201 187 232 199 205 220 202 178 221 198 190 196 223 178 215 215 222 194 226 255 295 302 319
206 180 185 193 198 201 203 212 206 216 173 208 184 168 173 187 196 225 183 221 181 212 181 201 210 205 173 211 207 224 194 216 239 266 222 322 289 325
194 219 203 204 176 214 212 205 206 190 183 182 183 183 215 200 210 197 202 212 193 195 199 196 200 197 202 216 216 215 195 252 268 302 227 295 300 318
210 195 205 202 214 219 219 239 212 220 223 215 203 201 200 217 203 203 189 187 208 212 214 242 221 216 214 234 239 258 236 259 217 242 294 298 314 306
226 227 231 229 238 248 223 255 243 243 245 246 205 242 246 240 243 252 251 238 255 210 208 267 279 242 241 265 247 206 206 223 294 267 298 292 305 303
253 254 250 254 318 244 270 256 186 252 239 263 261 281 207 251 252 246 255 255 221 231 249 250 245 281 231 207 207 220 298 239 289 285 275 276 305 294
246 247 254 274 273 276 265 258 259 267 263 260 259 229 295 251 255 253 237 228 226 239 236 208 202 212 256 282 215 253 236 283 282 271 275 292 284 280
502 487 466 451 442 439 434 417 399 378 372 357 333 307 290 266 286 261 262 262 249 262 229 292 266 275 246 263 284 281 277 272 273 267 280 300 285 273
479 463 471 452 429 418 414 396 392 381 361 356 363 328 317 293 303 288 270 271 280 291 266 279 268 296 269 284 275 273 267 270 260 275 291 281 273 267
462 448 453 449 429 409 396 383 380 368 357 341 333 334 312 301 296 297 275 276 276 302 292 300 286 267 281 270 266 264 262 253 269 268 278 276 261 256
458 437 420 436 376 391 388 378 369 353 346 333 324 325 324 319 297 283 287 296 268 291 285 272 283 276 265 262 260 255 251 259 258 279 270 264 250 248
450 430 411 428 363 387 389 374 358 354 349 336 329 316 308 290 285 275 278 293 275 275 269 283 269 259 259 255 252 250 248 252 260 264 267 257 245 243
448 433 419 414 364 393 369 366 355 346 335 333 309 311 290 292 288 290 279 266 258 264 273 267 253 258 255 253 246 247 246 244 261 251 251 249 244 240
441 436 427 412 396 380 372 365 351 340 328 320 304 292 310 295 283 265 267 270 261 263 280 263 249 259 250 242 254 243 245 241 254 250 247 240 242 240
440 435 423 404 391 379 366 356 342 322 315 309 304 303 297 281 274 266 260 260 258 262 272 257 254 266 249 245 249 241 239 239 243 252 247 236 240 238
436 429 420 405 387 375 360 351 332 306 312 311 312 288 288 264 275 264 263 257 255 258 267 252 259 252 256 249 245 237 236 238 238 241 252 234 236 235
427 433 406 401 383 369 355 325 329 308 307 305 302 292 278 276 274 264 258 254 259 255 261 262 252 247 251 241 239 237 237 236 234 235 241 244 231 233

GFSNE_2pvu_pres_114.txt.gz
Presure
192 201 177 187 182 193 186 188 177 199 199 206 145 165 164 180 194 196 195 190 196 162 164 173 173 205 174 194 188 194 171 184 195 232 220 216 196 206
208 197 207 200 209 201 204 176 202 186 176 172 153 211 198 177 165 193 182 190 173 193 201 189 178 204 222 191 180 194 183 211 174 196 212 215 206 218
192 207 195 172 193 189 169 168 188 204 163 180 177 196 206 186 177 197 206 169 181 183 185 166 197 173 178 207 170 214 169 222 220 201 222 216 221 206
209 205 201 189 186 207 183 174 193 199 179 191 181 179 175 180 205 192 175 211 225 198 180 212 199 203 184 233 183 203 178 201 229 200 203 205 220 224
173 160 167 163 173 183 208 205 200 201 188 191 190 174 180 190 193 203 193 203 196 239 196 215 189 195 223 186 201 197 192 206 203 226 208 227 231 229
176 174 198 199 206 171 196 196 207 209 191 194 204 182 189 172 191 190 225 213 206 184 169 177 189 183 224 221 197 212 198 198 214 203 218 234 237 238
203 195 206 202 201 182 181 202 197 185 187 204 203 202 186 186 215 188 185 212 211 196 197 224 218 209 212 194 212 202 217 197 213 221 242 243 251 253
214 205 209 216 218 211 215 197 213 213 218 207 202 209 202 201 209 196 220 230 175 201 205 185 205 193 194 204 214 223 208 220 225 224 274 227 265 262
216 201 213 216 208 216 215 210 216 210 206 204 224 216 214 214 213 213 213 199 215 204 177 190 201 208 216 204 229 226 198 231 229 193 239 269 250 222
225 179 211 207 236 245 247 268 304 293 259 264 274 267 245 249 275 216 254 229 240 244 241 244 231 232 222 239 240 274 218 255 209 222 243 223 210 221
182 218 196 187 238 238 256 262 219 213 260 224 232 229 257 239 228 239 231 217 242 255 213 219 186 216 236 251 249 239 239 198 220 196 174 195 219 220
215 243 216 240 235 229 254 270 287 267 255 282 265 374 270 255 255 285 258 295 237 251 241 255 259 264 273 233 255 245 229 231 233 245 217 213 300 297
262 251 289 284 281 375 390 472 493 474 459 434 423 406 388 349 324 307 294 267 257 272 263 283 244 243 257 257 268 264 279 255 253 266 232 276 287 272
279 277 273 312 354 526 500 486 470 462 448 427 407 396 382 355 342 394 312 301 303 306 292 280 273 271 270 267 259 266 262 283 269 292 280 281 273 279
272 266 278 346 543 517 488 460 443 445 438 422 412 393 398 374 344 353 362 338 330 304 293 284 274 266 272 275 292 276 309 291 286 275 277 277 268 266
252 265 317 508 524 499 467 439 425 431 432 415 406 389 384 356 334 345 328 334 337 329 289 284 281 277 276 284 274 302 290 284 277 269 271 263 260 263
251 284 356 535 504 475 447 425 414 421 420 406 399 381 375 355 357 340 336 327 324 300 287 282 277 275 270 282 285 291 274 268 262 263 259 252 258 257
261 306 423 516 486 461 433 410 419 420 404 404 384 374 359 356 343 325 329 312 302 299 293 288 282 267 283 279 272 264 267 254 256 254 252 249 252 272
277 328 514 495 472 453 428 409 412 402 374 395 375 359 351 337 330 323 305 293 302 287 285 285 274 288 280 263 256 274 254 252 252 250 251 244 252 257
291 368 509 478 459 445 430 414 406 392 386 381 367 354 335 325 328 315 307 299 283 283 270 260 282 276 261 273 276 260 245 247 247 245 244 243 248 251
302 375 510 470 452 446 431 415 397 389 379 366 360 345 338 332 317 299 297 277 279 265 274 278 265 258 258 272 259 249 249 245 242 245 245 241 240 254
323 508 515 463 445 438 425 411 398 384 372 357 346 339 331 318 306 298 280 278 263 275 270 266 262 266 247 263 258 245 251 248 242 243 240 242 240 270
329 510 529 461 443 432 422 402 386 378 360 350 338 327 321 299 300 286 282 287 278 264 265 255 254 263 249 261 251 244 250 253 239 239 240 234 236 243

GFSNE_2pvu_pres_120.txt.gz
Presure
196 196 164 245 239 231 149 160 224 228 182 157 183 171 162 156 188 207 165 203 208 212 199 170 205 181 171 161 201 186 160 202 176 147 166 204 188 185
172 275 143 144 262 239 249 198 213 181 199 197 205 197 206 200 210 195 202 201 203 201 200 192 185 183 171 194 190 187 174 118 205 205 202 209 218 218
275 272 266 213 188 249 242 234 161 180 166 143 183 200 206 204 206 181 213 186 169 192 181 176 175 197 201 198 200 198 207 210 210 154 195 213 209 228
246 251 251 246 244 241 187 151 143 162 192 174 196 223 215 181 185 185 182 194 211 196 203 203 210 214 204 202 191 223 216 200 192 223 192 192 197 213
140 224 163 195 191 228 229 174 226 215 221 211 183 218 206 208 201 179 213 207 213 215 213 212 215 220 211 196 204 206 209 206 217 204 213 207 208 208
190 218 170 171 221 223 221 213 188 195 154 176 209 210 152 184 209 214 211 222 224 221 216 217 213 208 211 206 207 201 193 202 195 189 183 200 211 220
190 178 226 225 204 162 202 141 223 223 203 208 180 186 190 214 211 220 229 253 248 248 254 257 256 255 252 239 255 239 251 257 228 214 180 217 231 231
204 216 222 205 218 206 212 215 208 185 195 178 179 188 189 257 203 254 253 213 253 236 285 253 244 240 261 262 257 246 239 242 251 228 231 184 183 196
169 214 216 222 226 224 219 165 182 168 172 158 185 163 189 210 238 245 236 259 285 274 269 269 282 293 301 332 331 302 262 256 277 252 254 227 221 216
241 242 240 233 239 193 142 200 186 189 226 142 219 196 222 194 273 271 273 281 286 293 310 319 355 362 354 363 336 339 306 299 278 244 249 235 225 234
265 226 151 212 178 159 154 209 208 177 218 198 196 246 216 210 263 275 281 292 326 519 463 442 375 397 411 380 343 343 330 302 285 265 252 250 258 260
184 203 153 154 154 153 157 176 208 198 222 184 209 200 250 270 282 294 308 518 494 487 437 382 380 365 349 393 301 350 306 325 294 294 293 257 254 259
170 203 146 154 154 153 194 185 213 194 196 185 245 252 275 287 304 372 515 478 483 477 495 446 366 342 305 308 290 285 287 303 316 312 299 282 270 259
195 212 146 155 155 193 191 184 215 217 209 235 194 274 288 307 477 515 495 458 471 394 404 444 368 326 303 302 266 284 283 278 270 281 292 281 273 270
214 151 148 148 169 183 251 218 216 185 195 189 210 286 306 348 503 481 438 446 417 437 403 397 324 320 310 322 296 272 284 273 268 266 286 285 277 276
226 153 144 212 177 221 204 250 203 204 234 202 290 296 315 503 480 457 447 423 415 392 410 342 339 317 316 304 272 274 260 262 266 334 325 317 293 286
146 145 149 198 217 234 235 226 195 218 255 245 293 311 463 475 460 433 429 417 439 380 383 345 337 311 319 329 285 300 279 279 282 275 280 280 273 268
226 148 151 170 169 213 214 199 248 251 276 291 304 368 476 452 445 439 427 418 415 393 358 323 322 304 279 288 282 275 269 273 282 293 287 272 267 269
241 151 158 155 213 238 239 240 249 273 286 293 314 482 450 446 437 421 411 400 391 373 336 336 303 303 291 284 268 271 282 287 277 275 264 270 266 265
226 152 151 185 219 236 246 251 265 276 288 306 394 464 441 416 422 416 395 411 361 373 358 333 310 292 283 281 273 288 279 276 266 264 261 266 258 277
166 150 169 217 240 245 255 260 265 281 292 313 477 449 414 424 412 398 371 395 376 362 312 331 311 290 279 288 292 292 281 276 260 264 265 260 275 266
163 146 239 240 247 253 253 268 280 284 309 348 463 436 424 407 407 392 347 368 361 356 336 312 293 301 291 294 286 274 263 267 271 262 264 268 260 257
160 162 243 251 258 262 260 280 283 308 335 468 446 428 401 400 389 381 359 371 350 347 326 317 312 312 319 292 272 259 264 262 257 251 264 260 260 251

GFSNE_2pvu_pres_123.txt.gz
Presure
134 135 135 144 187 160 150 187 190 202 277 196 273 279 193 246 242 173 174 188 217 212 207 200 190 184 204 206 206 209 180 179 184 190 202 203 195 196
134 137 193 171 196 199 209 209 229 300 266 259 251 262 230 246 240 212 182 200 193 206 173 203 204 201 209 220 201 205 207 206 206 215 210 204 214 216
198 199 186 190 188 213 223 262 274 260 251 239 245 181 214 186 176 187 194 202 151 224 200 213 184 173 203 210 212 211 215 211 204 205 212 197 209 205
181 192 195 201 225 156 265 251 247 154 211 240 190 213 230 230 232 231 235 227 195 144 168 178 173 183 194 195 202 208 219 225 224 221 217 211 200 206
216 248 257 254 258 238 163 235 234 207 190 180 227 225 210 147 196 197 214 147 164 172 194 183 189 189 221 238 215 205 263 269 223 214 253 251 207 239
262 195 253 247 241 180 161 181 228 216 205 168 217 204 205 209 218 188 159 191 195 213 205 171 215 242 221 224 228 243 220 247 256 233 270 247 249 248
248 243 246 185 180 216 209 196 226 207 207 214 201 223 189 151 160 157 173 191 191 181 205 129 224 207 215 229 244 261 264 277 268 275 266 276 280 278
250 244 229 231 230 231 207 196 220 225 219 223 229 231 160 153 257 192 201 191 191 212 220 189 215 238 251 279 270 275 271 268 281 272 284 279 279 279
218 220 208 212 223 223 199 215 227 187 214 237 163 161 155 158 190 206 217 222 183 209 191 206 254 280 246 280 282 285 278 276 292 291 304 321 315 288
213 143 168 196 228 165 223 212 186 236 220 184 157 153 151 182 183 183 212 236 207 188 230 203 293 291 292 301 301 311 379 343 364 378 356 316 285 266
227 226 126 170 275 165 244 188 193 200 151 151 155 153 219 214 233 233 232 192 209 201 249 305 306 314 319 472 439 385 402 403 392 371 359 364 301 289
238 200 195 227 238 232 211 203 212 202 212 151 157 158 159 158 227 227 224 232 217 229 295 319 333 516 497 527 446 411 384 337 319 327 292 296 288 263
130 221 205 204 211 202 208 219 212 224 192 149 148 154 185 226 227 196 234 225 277 300 329 527 503 489 477 451 362 341 372 326 298 285 309 290 292 293
204 202 206 203 213 220 222 225 233 203 234 189 151 181 230 230 226 210 267 237 296 318 520 494 450 452 441 404 351 332 308 319 339 302 287 292 305 335
201 208 219 224 229 224 210 228 236 228 227 150 162 160 204 215 242 260 273 288 309 484 470 490 429 415 413 343 344 302 314 309 294 309 301 277 304 282
226 227 229 226 231 221 226 226 231 145 171 155 155 230 236 239 254 266 279 304 342 469 470 449 419 399 413 372 322 310 302 288 291 276 277 281 266 276
222 225 232 220 218 224 216 226 232 187 162 183 164 224 237 253 263 278 291 327 469 459 443 435 422 398 394 345 324 317 300 279 275 286 277 272 258 272
225 220 218 216 222 220 214 203 206 163 189 154 227 244 253 265 276 285 319 476 457 435 430 411 388 386 364 333 301 298 286 275 280 265 266 273 269 279
227 227 227 228 228 186 179 231 145 231 166 239 250 252 260 270 277 311 331 460 452 423 421 401 365 387 337 307 297 290 279 286 280 261 269 273 275 289
241 242 233 240 182 175 182 232 240 246 152 254 264 270 265 300 302 323 454 445 438 426 415 389 384 346 312 309 308 314 295 277 265 265 275 274 278 291
193 240 265 166 168 199 260 253 170 263 230 260 264 283 291 302 318 387 437 433 423 408 393 352 350 336 316 296 296 287 279 309 282 276 273 275 279 269
189 275 232 160 169 296 311 313 304 303 284 301 293 294 305 301 349 439 431 420 414 384 392 384 339 319 304 300 290 284 277 278 267 280 278 273 260 261
306 203 314 166 298 296 306 294 295 305 301 289 292 296 307 341 360 425 416 417 406 375 361 375 339 316 298 299 299 287 284 271 266 272 280 262 260 267

GFSNE_2pvu_pres_126.txt.gz
Presure
129 134 130 134 135 139 127 174 200 193 178 189 196 181 184 187 211 231 263 272 189 247 242 219 238 226 208 194 201 202 203 219 219 173 173 178 181 190
126 133 161 140 140 141 163 182 173 187 186 197 188 190 194 241 248 232 174 242 217 238 232 213 206 200 226 187 219 187 189 166 214 172 190 174 195 193
142 144 141 136 141 191 184 187 197 185 186 190 195 206 248 199 139 186 220 240 236 184 224 211 192 195 209 180 209 170 202 217 202 227 200 201 226 216
150 143 143 144 182 179 191 198 201 198 193 202 247 226 216 247 240 239 186 227 226 213 200 214 216 217 171 163 190 185 219 192 212 221 228 250 238 227
221 215 197 175 259 195 222 262 257 237 257 257 248 237 244 235 227 223 209 212 175 217 217 201 155 224 208 162 246 247 215 215 184 217 204 216 208 224
278 279 268 279 268 264 226 250 254 252 254 246 213 232 233 215 224 221 217 217 209 221 160 158 194 168 185 184 206 219 207 219 221 216 219 224 226 246
262 276 259 255 232 251 250 245 241 245 234 236 228 209 222 219 208 221 217 217 218 216 155 145 154 179 172 165 222 206 193 221 229 236 223 228 240 279
171 250 238 239 244 209 253 242 236 225 190 205 155 178 171 204 212 215 224 150 163 154 151 154 232 193 237 239 203 201 241 244 238 284 223 296 285 280
246 227 195 234 238 137 231 199 216 226 216 157 220 204 201 216 228 232 184 151 148 152 161 154 217 233 229 222 222 224 217 233 276 250 305 302 295 289
232 216 202 133 176 223 151 217 134 148 227 221 221 231 250 253 219 190 208 181 158 158 155 201 233 198 216 216 214 268 291 302 320 324 450 412 347 333
220 223 221 155 145 213 225 153 215 196 241 225 238 257 204 206 212 219 218 244 164 156 211 165 236 213 229 230 281 303 307 337 495 497 421 378 352 355
142 154 222 230 209 147 159 228 236 219 247 247 202 208 217 220 239 240 143 229 237 215 201 242 226 237 243 281 307 320 530 485 454 436 439 367 369 341
159 144 170 233 220 269 266 262 255 238 205 209 212 223 238 237 237 235 215 191 222 173 205 238 246 258 290 317 328 503 479 464 450 368 359 336 334 328
162 263 265 252 239 223 215 213 212 215 217 223 234 229 234 232 232 230 234 160 197 161 241 252 263 288 305 332 464 474 457 462 390 354 354 343 340 309
215 221 221 218 223 225 225 222 225 236 243 228 230 223 230 215 214 219 192 231 183 245 253 267 284 291 328 347 476 439 439 402 357 338 333 307 302 303
228 229 232 237 234 237 245 241 243 225 223 227 226 222 236 203 214 169 219 178 153 253 264 283 292 320 328 449 461 402 356 349 342 325 293 309 279 289
224 221 227 222 231 230 232 232 237 244 245 248 251 231 208 172 219 219 183 267 270 273 277 282 320 326 467 424 422 372 346 345 314 306 292 289 294 290
244 227 234 245 239 245 233 254 258 259 247 264 224 268 279 180 177 249 305 320 298 299 303 314 310 468 447 411 404 349 337 314 313 321 309 303 295 283
165 273 275 275 276 186 282 289 296 215 175 231 230 203 255 170 164 323 303 290 296 298 311 321 453 427 419 402 379 338 322 314 291 300 300 296 283 270
270 268 289 300 274 277 151 269 202 175 264 209 288 291 170 158 316 298 293 305 307 300 335 381 434 417 393 394 388 328 312 306 294 295 277 263 273 261
255 252 280 293 262 266 335 296 231 344 347 244 182 287 231 299 301 300 299 303 294 338 448 441 437 393 383 359 350 315 307 295 297 275 282 272 278 259
305 318 323 393 411 413 406 378 378 302 367 192 297 317 298 299 294 292 297 272 355 378 434 415 427 386 367 337 331 315 303 291 283 272 270 272 262 272
381 401 402 403 394 383 360 343 329 316 312 310 306 316 301 284 289 292 261 347 441 435 424 404 404 373 349 320 328 302 295 277 279 274 276 274 275 276

GFSNE_2pvu_pres_129.txt.gz
Presure
127 124 123 119 121 124 129 132 133 136 160 128 150 188 187 192 174 179 182 182 193 189 201 153 263 253 231 241 235 230 230 221 207 154 189 163 214 225
125 126 128 125 131 131 131 127 140 151 127 184 190 144 183 176 183 191 200 199 216 224 261 243 200 227 224 201 225 214 208 204 167 190 195 191 166 172
126 131 133 142 132 135 155 143 154 136 197 186 185 174 187 162 195 187 208 243 237 252 198 240 228 200 227 215 218 220 220 149 155 208 161 150 190 189
137 138 139 143 143 150 142 157 124 182 173 159 195 194 200 201 167 254 237 256 197 241 235 217 227 221 219 224 216 216 214 160 159 172 156 192 214 210
141 146 143 150 167 184 142 253 202 256 206 251 209 195 222 260 243 260 250 187 241 223 234 141 205 166 212 152 156 166 208 162 159 159 214 191 191 230
212 184 140 197 145 149 211 206 262 267 263 259 258 179 215 249 253 243 235 233 194 220 208 191 189 212 212 216 156 183 159 152 154 166 223 228 191 228
232 199 263 228 266 256 246 246 244 222 238 124 239 229 124 132 233 226 225 215 202 214 213 216 218 211 207 182 215 152 153 195 157 170 162 230 212 222
249 256 253 256 264 244 248 236 236 237 194 148 236 232 230 150 227 218 212 226 223 215 210 204 216 234 246 194 209 216 212 223 236 166 239 227 226 226
245 214 235 233 125 235 191 239 231 231 197 225 168 225 152 176 216 187 182 185 199 219 225 229 228 210 161 212 215 171 238 249 238 203 234 241 247 245
182 173 128 118 133 231 226 218 228 197 199 185 158 207 216 196 193 221 202 224 225 226 222 255 223 199 215 213 237 245 241 219 230 224 242 256 272 281
128 133 133 152 231 226 227 225 224 225 226 216 225 197 232 234 227 235 239 245 231 249 210 215 218 227 245 248 240 231 178 232 242 248 264 281 298 352
141 145 181 223 221 228 164 226 231 171 202 229 232 228 226 237 267 266 269 259 244 220 220 234 225 230 216 226 230 160 153 242 265 276 290 323 443 528
220 226 232 226 235 220 195 232 237 237 221 234 248 254 260 218 227 230 228 230 227 235 243 223 223 207 238 225 215 184 167 284 301 304 335 426 459 400
231 238 244 263 249 247 253 254 235 236 232 219 223 225 228 234 238 235 228 251 248 219 231 245 252 144 196 189 248 237 265 297 335 340 468 473 400 384
228 229 228 228 226 226 227 228 229 227 229 232 237 245 246 246 237 242 249 255 253 268 274 255 271 212 170 176 253 307 316 324 347 493 460 407 378 362
251 244 233 240 238 240 240 241 239 240 242 225 231 250 258 267 271 212 246 267 174 169 296 157 160 219 191 339 324 323 321 374 435 446 392 361 340 337
241 165 230 289 286 282 273 272 268 269 268 149 271 264 248 287 183 306 248 289 232 212 261 197 335 315 316 308 312 325 372 430 415 393 361 344 334 338
276 233 285 284 267 271 277 276 275 235 276 279 284 286 298 284 264 179 209 368 161 236 270 304 318 314 306 317 314 437 448 372 368 350 319 334 324 286
266 284 285 287 285 290 278 264 268 287 307 310 265 256 410 427 360 265 385 342 336 315 305 303 301 315 308 312 402 433 386 356 347 333 334 327 308 284
289 255 253 289 291 295 300 313 331 366 372 400 430 422 403 389 380 357 334 321 314 303 304 297 306 301 310 437 424 419 368 346 334 327 322 304 292 272
292 297 298 302 373 385 410 407 400 419 415 398 385 369 354 341 328 318 308 304 302 308 305 299 312 283 444 417 400 413 347 332 320 317 291 291 293 295
302 359 433 417 410 405 399 399 395 391 379 366 345 330 310 301 302 312 311 301 295 297 304 264 332 428 422 388 375 390 344 315 307 306 301 313 292 277
435 424 413 404 394 389 380 378 379 365 346 327 302 293 299 301 296 298 297 292 303 302 250 332 433 438 403 361 352 357 339 311 299 291 294 279 278 268